GFSGL_925_temp_000.txt.gz
Temp
14 14 13 12 12 12 11 11 11 11 11 11 10 10 10 10 10 9 9 9 8 7 6 5 4 4 4 5 6 8 8 8 9 11 11 12 17 16 15 16 16 16 15
14 13 12 12 12 11 11 11 11 11 11 10 10 10 10 10 9 9 9 9 8 7 6 5 5 5 6 6 8 9 9 9 10 10 12 11 15 16 16 15 15 16 15
14 13 12 12 12 11 11 11 11 10 10 10 10 10 10 9 9 9 9 9 8 7 5 5 6 6 7 7 8 9 9 9 10 11 11 12 16 15 14 15 14 14 14
13 13 12 12 11 11 11 11 10 10 10 10 10 10 9 9 10 10 9 8 8 7 6 6 6 6 7 8 8 9 10 10 10 10 10 12 16 15 14 14 14 14 13
13 13 12 12 11 11 11 10 10 10 10 10 9 9 9 9 9 10 9 9 8 7 7 6 6 6 7 9 10 10 10 10 10 10 10 13 15 14 14 14 14 14 13
13 12 12 12 11 11 11 10 10 10 10 9 9 9 9 9 9 9 9 9 8 8 7 6 6 6 7 8 9 11 11 10 10 11 11 13 15 14 15 14 15 14 13
13 13 12 12 11 11 11 10 10 9 9 9 9 9 9 9 9 9 9 9 9 8 7 7 6 6 7 7 9 11 12 11 11 11 11 14 15 15 15 15 15 15 15
13 12 12 11 11 11 10 10 9 9 9 8 8 8 8 8 8 9 9 9 9 8 7 6 6 6 7 8 9 11 12 12 11 11 11 12 15 15 15 16 16 15 13
12 11 11 11 11 10 9 9 9 9 8 8 8 8 8 8 9 9 9 9 8 8 7 7 6 6 7 8 9 10 11 11 12 12 13 12 14 15 16 16 16 14 13
11 11 11 11 10 9 9 9 9 8 8 8 8 8 8 8 9 9 9 9 8 8 7 7 6 6 7 8 8 10 11 12 12 12 13 12 13 15 17 16 16 15 14
11 11 11 10 10 9 9 9 9 8 8 8 8 8 8 7 7 7 8 8 8 7 7 6 6 6 7 7 9 10 11 12 12 13 14 13 13 14 16 17 16 15 14
11 11 10 10 9 9 9 9 8 8 8 8 7 7 7 6 6 6 7 7 8 6 6 6 5 6 7 9 9 10 11 13 13 12 13 14 14 16 17 17 17 15 15
11 10 10 10 9 9 9 9 8 8 8 7 7 6 5 5 5 5 6 6 6 6 6 6 6 7 7 8 9 10 11 13 13 13 13 14 15 16 17 17 16 15 16
10 10 10 9 9 9 9 8 8 8 6 6 5 5 5 5 5 5 5 5 5 5 5 5 6 7 7 8 9 9 11 12 13 13 14 15 16 16 17 17 15 15 15
10 9 9 9 9 9 8 8 8 7 6 5 5 5 4 4 5 5 5 5 5 5 6 6 6 6 6 7 8 9 9 13 12 13 14 15 16 17 17 17 15 14 15
9 9 9 9 8 8 8 8 7 7 6 6 5 5 5 5 5 5 5 5 5 5 6 6 6 6 6 6 7 8 9 12 13 13 14 16 17 17 17 16 15 15 14
9 8 8 8 7 7 7 7 5 5 5 5 5 5 6 6 6 6 5 5 5 6 6 6 5 5 5 6 6 7 8 9 14 14 15 16 17 17 17 16 15 14 14
8 8 7 7 7 7 6 5 5 5 4 4 5 5 6 6 6 5 5 5 6 7 6 5 5 5 5 5 6 7 8 9 13 14 15 16 17 16 17 16 15 15 14
7 7 7 6 6 6 5 5 5 4 4 4 4 5 5 6 6 5 5 5 5 6 6 6 5 4 4 5 5 6 7 9 12 13 14 16 17 17 17 16 15 14 14
6 6 6 5 5 5 5 5 4 4 4 3 4 4 3 5 5 6 5 5 5 6 6 6 5 5 4 4 5 6 7 9 12 13 13 14 16 16 16 15 15 14 14
5 4 4 4 4 4 4 4 3 3 2 3 3 3 4 5 5 5 5 5 5 6 6 6 5 5 4 4 5 5 7 7 9 13 13 13 15 15 16 15 14 14 13
4 3 3 3 4 3 3 3 3 3 3 3 3 4 4 4 4 5 5 5 5 6 6 6 6 5 4 4 5 5 6 7 8 13 12 13 14 15 15 15 14 13 13
3 3 3 3 3 2 2 2 2 2 2 3 3 3 3 4 4 5 5 5 5 6 6 6 6 6 5 5 5 5 6 6 7 9 13 13 14 14 14 14 13 13 13
3 2 2 2 2 2 1 1 1 2 2 2 3 3 3 3 4 4 5 5 5 6 6 6 6 6 6 5 5 5 6 7 8 10 13 13 14 14 14 13 13 13 12
2 2 2 1 1 1 1 1 1 1 2 2 3 3 3 3 3 4 5 5 5 6 6 6 6 6 6 6 5 6 6 8 8 11 13 14 14 13 13 13 13 13 12
2 2 1 1 1 0 0 0 1 1 1 2 2 2 3 3 3 3 3 4 5 6 6 6 6 6 6 6 5 6 7 8 9 11 12 13 13 13 13 13 12 11 11

GFSGL_925_temp_003.txt.gz
Temp
14 13 13 13 12 12 12 11 11 11 11 11 10 10 10 10 10 10 9 9 9 9 9 8 7 7 5 5 5 5 5 6 7 8 8 9 10 11 13 15 15 16 15
14 14 13 13 12 12 11 11 11 10 10 10 10 10 10 10 10 9 9 9 9 8 8 8 7 6 5 5 5 6 6 6 7 9 9 10 10 11 12 15 14 15 15
14 14 13 13 12 12 11 11 10 10 10 10 10 10 10 9 9 9 9 9 9 9 8 8 7 7 5 5 6 7 7 8 8 9 9 9 10 11 13 14 14 14 14
14 14 13 12 12 11 11 11 10 10 10 10 10 10 10 9 9 9 9 9 9 9 8 8 7 7 6 5 7 7 8 8 9 9 9 10 10 11 12 13 13 13 13
14 13 13 12 12 11 11 11 10 10 10 10 10 9 9 9 9 9 9 9 9 9 8 8 7 7 6 7 8 8 9 9 9 9 10 10 10 11 12 13 12 12 13
14 13 13 12 12 11 11 11 10 10 10 9 9 9 9 9 8 9 9 9 9 9 8 8 7 7 6 7 7 8 9 9 10 10 11 11 11 12 14 14 13 12 12
13 13 12 12 11 11 11 11 10 9 9 9 9 8 8 8 8 8 9 9 9 9 8 8 7 7 6 6 7 8 9 10 10 10 11 10 11 12 14 14 13 13 14
13 13 12 11 11 11 11 10 9 9 9 9 8 8 8 8 8 8 8 9 8 9 8 8 7 6 6 6 7 8 8 9 11 11 11 11 12 11 13 14 14 14 13
12 12 11 11 11 10 10 9 9 9 9 8 8 8 8 8 8 8 8 7 7 7 7 7 6 6 6 7 7 8 8 9 10 11 12 11 11 11 14 14 14 13 12
11 11 11 11 10 10 10 9 9 9 8 8 8 8 8 8 7 7 6 6 6 6 7 6 6 6 6 6 7 8 9 10 11 11 11 11 11 11 12 14 15 14 13
11 11 11 10 10 10 9 9 9 9 8 8 8 8 7 7 6 6 6 6 6 6 6 5 5 5 6 7 8 8 10 11 11 12 11 11 11 11 12 14 15 15 13
11 11 11 10 10 9 9 9 9 9 8 8 7 6 6 6 6 5 5 6 6 6 5 5 5 5 6 7 7 8 9 10 12 12 12 12 11 12 13 14 15 15 14
11 11 10 10 10 9 9 9 9 8 8 7 6 5 5 5 5 4 5 5 6 5 5 5 5 6 6 6 6 7 8 10 12 12 12 13 13 13 13 14 16 15 14
11 10 10 10 9 9 9 9 8 8 7 6 6 5 5 5 4 4 4 5 5 5 5 5 6 6 6 6 6 6 7 9 12 12 12 14 13 13 13 15 15 14 14
10 10 9 9 9 9 8 8 8 8 7 6 6 5 5 4 4 5 6 5 6 5 5 5 5 5 5 5 6 6 6 8 12 13 13 13 13 14 14 16 15 14 14
9 9 9 8 8 8 7 7 7 7 6 6 6 5 5 5 5 6 6 6 5 5 5 5 5 5 5 5 5 5 6 7 10 13 13 14 14 15 16 15 14 15 13
9 9 8 8 7 7 7 6 5 6 6 5 5 5 5 5 5 6 6 5 5 5 5 5 5 5 4 4 5 5 6 6 8 12 13 14 15 16 15 15 14 15 13
8 8 7 7 7 6 6 5 5 4 4 4 5 4 4 5 5 5 6 6 5 5 4 4 5 5 4 4 4 5 5 6 8 12 13 13 15 15 15 15 15 14 13
7 7 6 6 6 6 5 5 5 4 4 4 4 4 4 4 4 5 6 5 5 4 4 4 5 4 4 4 4 4 5 6 8 11 14 14 14 15 15 15 15 14 13
6 6 5 4 4 4 4 4 4 4 3 2 3 3 3 3 4 4 4 5 5 5 5 4 5 5 4 4 4 4 5 6 8 11 14 14 14 15 15 15 14 13 13
5 4 4 4 4 4 4 3 3 3 3 2 3 3 3 4 4 4 4 5 5 5 4 5 5 5 4 4 4 4 5 6 7 8 14 15 15 16 15 15 14 14 13
4 4 3 3 3 3 3 3 2 3 3 3 3 3 3 4 4 4 4 5 5 5 5 5 5 5 5 5 4 4 5 5 6 7 11 14 16 16 15 15 14 14 13
3 3 3 2 2 2 3 2 2 2 2 2 2 3 3 3 3 3 4 5 5 6 6 6 6 5 5 5 4 4 5 5 5 6 7 14 14 15 14 14 14 13 12
3 2 2 2 2 2 1 1 1 1 2 2 2 3 3 3 3 3 4 4 5 5 6 6 6 5 5 6 5 4 5 6 7 7 9 12 13 13 14 14 13 12 12
2 2 2 2 2 1 1 1 1 1 1 1 2 2 3 3 3 3 3 4 4 5 5 6 6 5 5 6 5 5 6 7 7 8 10 11 12 13 13 13 13 12 12
2 2 2 2 1 0 0 0 0 0 0 1 1 2 2 3 3 3 3 4 4 5 5 5 5 5 5 5 5 6 6 7 8 10 11 12 12 12 13 13 13 12 12

GFSGL_925_temp_006.txt.gz
Temp
14 13 13 13 13 12 12 12 11 11 11 10 10 10 10 10 10 9 9 9 9 9 9 8 8 8 7 6 5 5 5 5 5 6 6 6 7 7 9 9 12 13 15
14 14 13 13 13 12 12 12 11 11 10 10 10 10 10 10 10 9 9 9 9 8 8 8 8 7 7 6 6 5 5 5 5 6 6 7 7 9 9 10 11 14 16
14 14 13 13 12 12 12 11 11 10 10 10 10 10 10 9 9 9 9 9 8 8 8 8 8 8 6 6 6 6 5 6 6 7 7 8 9 9 9 9 11 14 15
14 13 13 13 12 12 12 11 11 10 10 10 10 10 9 9 9 8 8 8 8 8 8 8 8 7 7 6 6 6 6 7 8 8 8 8 9 10 9 10 11 14 14
13 13 13 13 12 12 12 11 11 10 10 10 9 9 9 8 8 8 8 8 8 8 8 8 8 8 8 8 7 6 6 7 8 8 9 9 9 9 10 10 13 14 14
12 12 13 13 12 12 12 11 11 10 10 9 9 8 8 8 8 8 8 8 8 8 8 8 8 7 7 7 7 6 7 8 9 9 9 9 9 10 10 10 12 14 14
12 12 13 12 12 12 11 11 10 10 9 9 8 8 8 8 8 8 8 8 7 7 6 7 7 6 6 6 6 6 7 8 9 9 10 10 10 10 11 11 12 14 14
12 12 13 12 12 11 11 10 10 9 9 9 8 8 8 8 8 7 7 7 6 6 6 6 6 6 6 6 6 6 7 7 9 9 10 11 10 11 11 12 13 14 13
11 12 12 12 11 11 10 10 9 9 9 8 8 8 8 8 7 7 7 6 6 6 6 6 6 5 5 6 6 6 7 8 9 10 10 11 10 11 11 12 13 12 12
11 12 12 11 11 10 10 9 9 9 9 8 8 8 8 7 7 7 6 6 5 5 5 5 5 5 6 6 6 7 7 8 9 10 11 10 11 10 11 12 14 13 13
12 12 11 11 11 10 10 9 9 9 8 8 8 8 7 7 6 6 6 5 5 5 5 5 5 5 6 6 7 6 7 8 8 10 11 11 10 11 10 12 13 13 12
11 11 11 11 10 10 9 9 9 8 8 7 7 7 7 6 6 6 5 5 5 5 5 5 5 5 6 6 6 6 7 7 8 10 11 11 11 11 11 12 14 14 13
11 11 11 10 10 9 9 9 8 8 7 7 6 6 6 6 5 5 4 5 5 5 5 5 5 5 6 5 5 6 6 6 7 8 11 12 11 11 12 12 14 14 13
11 10 10 9 9 9 9 8 8 8 7 6 6 5 5 5 5 5 5 5 5 5 5 5 5 5 5 5 5 5 5 5 6 8 12 12 11 11 12 13 13 13 13
10 10 9 9 9 9 8 8 8 7 7 6 6 5 5 4 4 5 5 5 6 6 5 5 5 5 5 5 4 4 5 5 6 10 12 12 12 12 12 13 13 13 13
9 9 9 8 8 8 7 7 7 7 6 5 5 5 5 5 5 5 5 6 6 5 5 4 4 4 5 5 4 4 5 5 5 6 12 12 12 13 13 13 13 13 12
9 9 8 8 7 7 6 6 5 6 6 5 5 4 4 4 4 5 5 5 5 5 4 3 3 4 5 5 4 4 4 5 5 6 10 13 13 13 14 14 13 14 12
9 9 8 7 7 6 6 5 5 4 3 4 5 4 4 4 4 4 4 5 5 5 5 4 3 4 4 4 4 4 4 5 5 6 8 13 13 13 14 13 14 14 12
8 7 6 6 5 5 5 4 4 4 3 3 4 4 4 4 3 4 4 4 4 4 4 4 4 4 4 4 4 4 4 5 5 7 9 13 14 13 14 14 15 13 12
6 6 5 5 4 4 4 3 3 4 3 3 3 3 3 3 3 4 4 4 4 4 5 4 5 4 4 4 3 3 4 4 5 6 7 13 13 14 14 14 15 12 12
5 4 4 4 3 3 3 3 3 3 3 3 2 3 3 3 3 3 4 4 4 5 5 5 5 5 4 4 3 4 4 4 5 6 6 9 13 14 15 15 14 12 12
4 4 3 3 3 3 3 3 2 3 3 2 2 3 3 3 3 3 3 4 4 5 5 5 5 5 5 5 4 3 4 4 5 5 5 7 13 13 14 14 13 13 12
4 3 3 2 2 2 2 3 2 2 2 2 2 2 2 3 3 3 3 3 4 5 5 5 5 5 5 5 4 4 3 4 4 5 5 6 11 12 13 14 13 13 12
3 2 2 2 2 2 1 1 1 1 1 1 1 1 2 3 3 3 3 3 4 4 5 5 5 5 5 5 5 4 4 4 5 4 5 6 10 12 12 13 13 12 11
2 2 2 2 2 1 1 1 0 0 1 0 1 1 1 2 2 3 3 3 4 4 5 5 5 5 5 5 5 4 4 5 6 6 7 9 10 13 12 12 13 12 11
2 2 2 2 1 1 0 0 0 0 -0 -0 -0 1 1 2 2 2 2 3 3 4 5 5 5 5 5 5 5 4 5 6 6 8 9 10 11 13 12 12 12 11 11

GFSGL_925_temp_009.txt.gz
Temp
12 13 13 13 13 13 12 12 12 11 11 11 10 10 10 10 9 9 9 9 9 8 8 8 8 8 7 7 7 6 4 4 5 5 5 4 5 5 5 6 7 8 11
12 12 13 13 13 12 12 12 12 11 11 11 10 10 10 9 9 9 9 8 8 8 8 8 8 8 7 7 6 5 4 5 5 5 5 5 5 6 6 6 8 9 11
12 12 12 13 13 12 12 12 11 11 11 10 10 10 10 9 9 8 8 8 8 8 8 8 8 8 7 7 6 5 5 5 5 6 6 7 6 7 7 7 8 11 11
12 12 12 13 13 13 12 12 11 11 11 10 10 10 9 9 8 8 8 7 8 8 8 8 8 7 7 6 6 6 6 6 6 6 7 8 7 7 8 8 10 10 10
11 11 11 13 13 13 12 11 11 11 10 10 10 9 9 8 8 7 7 7 8 8 7 7 6 6 7 7 7 7 6 6 6 6 8 8 8 8 8 9 10 10 11
11 11 12 13 13 12 12 11 11 11 10 10 9 9 8 8 8 7 7 8 7 7 6 6 6 5 6 6 7 7 7 6 7 8 9 9 9 9 9 9 9 9 14
11 11 12 12 12 12 12 11 11 10 10 9 9 8 8 8 8 7 7 7 7 6 6 6 6 5 6 5 5 6 6 6 7 8 8 9 9 9 10 10 9 10 14
10 10 11 11 12 12 11 11 10 10 9 9 9 8 8 8 8 7 7 7 7 6 6 6 5 5 5 5 6 6 6 6 7 8 9 9 10 11 11 11 10 10 14
10 10 10 11 11 11 10 10 10 9 9 9 8 8 8 8 7 7 7 6 6 5 5 5 5 5 5 6 6 6 6 7 7 7 8 9 10 11 11 10 10 12 14
9 10 11 12 12 11 11 10 10 9 9 8 8 8 8 7 7 6 6 6 5 5 6 6 6 5 6 6 6 6 6 6 7 7 8 10 10 11 11 11 11 13 14
10 11 12 12 12 11 11 10 9 9 8 8 8 8 8 7 6 6 6 6 5 5 5 6 6 5 5 6 7 6 6 7 6 6 8 10 10 10 10 11 11 14 13
10 11 11 12 11 10 10 9 9 8 8 8 7 7 7 7 6 6 5 5 5 5 5 6 6 5 6 6 6 6 6 6 5 6 7 10 10 10 10 11 12 13 14
10 10 11 10 10 10 9 9 8 8 7 7 6 6 6 6 6 6 5 5 5 5 5 5 5 5 5 5 5 6 5 5 5 6 6 7 11 11 11 11 12 13 13
9 10 10 10 9 9 9 8 8 7 6 6 6 5 5 5 5 5 5 5 5 5 5 5 5 5 5 5 5 5 4 4 5 5 6 7 10 11 11 11 12 12 12
9 9 9 9 9 8 8 8 8 7 7 7 6 5 5 5 5 4 5 5 5 6 6 5 5 4 3 4 5 4 4 4 5 5 6 8 11 11 11 12 12 12 12
8 8 8 8 8 8 8 7 7 7 6 6 5 5 5 4 4 5 5 5 5 5 5 4 4 3 3 4 4 4 4 4 4 5 5 8 11 11 12 12 12 13 12
9 8 8 8 8 7 6 6 6 6 5 5 5 4 4 4 4 4 4 4 4 5 5 4 3 3 3 3 4 4 3 4 4 5 6 7 12 12 12 13 13 12 11
9 9 8 7 7 6 6 6 5 4 3 4 4 4 4 4 3 3 4 4 4 4 4 4 4 4 3 3 4 4 3 4 4 5 6 8 11 12 12 13 12 12 12
8 8 7 7 6 6 5 4 4 3 3 3 3 4 4 4 4 4 4 4 3 3 4 4 4 4 4 4 4 3 3 4 4 4 6 7 9 12 13 12 13 12 12
7 7 6 6 5 4 4 3 3 3 3 3 3 3 3 3 3 3 3 3 3 4 4 4 5 5 4 4 4 3 3 3 4 4 5 6 7 12 13 13 12 12 11
6 5 5 4 4 3 3 3 3 3 3 3 3 3 3 3 3 3 3 3 3 4 5 5 5 5 5 4 4 4 3 3 4 4 4 5 6 12 13 14 12 12 11
5 4 4 3 3 3 3 3 2 2 2 2 2 2 2 3 3 3 3 3 3 4 4 5 5 4 5 5 5 4 3 3 3 4 4 4 5 8 12 13 12 12 11
4 3 3 2 2 2 2 2 2 2 2 1 1 1 1 2 2 3 3 3 3 3 4 4 4 4 5 5 5 4 4 3 3 3 4 4 5 8 13 13 13 12 11
3 3 2 2 2 2 2 1 1 1 1 1 1 1 1 1 2 2 3 3 3 4 4 4 5 5 5 5 5 4 4 4 4 4 3 3 5 8 12 12 12 12 11
2 2 2 2 2 1 1 0 1 1 0 0 -0 -0 0 1 1 2 2 2 2 2 4 4 5 5 5 5 5 4 4 4 5 5 4 5 6 8 11 12 11 11 10
2 1 2 2 1 1 1 0 0 0 0 0 -1 -0 1 1 1 1 1 1 1 2 3 4 4 4 5 5 4 4 4 4 5 6 7 8 8 9 12 11 11 10 10

GFSGL_925_temp_012.txt.gz
Temp
11 12 12 12 13 13 13 13 12 12 12 11 11 10 10 10 10 9 9 9 8 8 8 8 7 8 7 7 7 7 5 4 4 5 6 6 6 5 5 5 5 5 6
11 11 11 13 13 13 13 13 12 12 12 11 11 10 10 10 9 9 9 8 8 7 7 7 7 7 7 7 7 6 5 4 3 5 5 6 5 6 5 5 5 5 6
10 11 11 11 12 13 13 12 12 12 11 11 10 10 10 9 9 9 8 8 7 7 7 7 7 7 6 6 6 5 5 5 4 4 5 6 5 5 6 6 6 6 7
10 10 10 11 12 13 13 12 12 12 11 11 10 10 10 9 9 8 8 7 7 7 7 7 6 6 6 6 6 6 5 5 5 6 6 6 6 7 7 7 7 6 7
10 10 10 11 12 13 13 12 12 11 11 11 10 10 9 9 8 8 7 7 7 7 7 6 6 6 6 6 6 6 6 5 6 6 6 7 7 7 7 7 7 8 8
10 10 9 10 11 12 13 12 11 11 11 10 10 9 9 8 8 7 7 7 7 7 6 6 6 6 5 5 6 6 6 6 6 6 7 7 8 8 8 8 8 9 9
10 10 9 10 10 11 12 12 11 10 10 10 9 9 9 8 8 7 7 7 7 7 6 6 5 5 5 5 5 5 6 6 7 7 7 7 8 8 8 8 9 9 10
10 9 9 10 10 10 11 11 11 10 10 9 9 8 8 8 8 7 7 7 6 6 6 5 5 5 5 5 5 6 6 6 6 6 6 7 8 8 9 9 9 9 11
10 9 9 9 9 10 9 10 10 10 9 9 9 8 8 8 8 7 6 6 6 5 5 5 5 5 5 6 6 6 6 6 6 7 7 7 8 10 9 10 10 10 11
10 9 9 10 10 9 10 10 10 10 10 9 8 8 8 8 7 7 6 6 6 5 5 5 6 6 6 6 6 6 6 6 6 6 6 7 8 10 10 10 11 11 12
10 9 9 9 10 11 11 11 10 9 9 8 8 8 7 7 7 7 6 6 5 5 5 5 6 5 5 6 6 6 6 6 5 5 6 6 8 10 10 10 10 11 12
8 8 8 9 9 10 11 10 9 9 8 8 7 7 7 7 6 6 5 5 5 5 5 5 5 5 5 5 5 5 6 5 4 5 6 6 7 10 10 11 11 12 12
8 7 8 8 9 10 10 9 8 8 7 7 6 6 7 6 6 6 5 5 5 5 5 5 5 5 5 5 5 5 5 4 4 5 5 6 6 8 10 10 11 12 12
7 7 7 8 8 9 9 9 8 7 6 6 6 6 6 5 5 5 5 5 5 5 5 5 5 5 5 5 5 5 4 4 4 5 5 5 6 8 10 11 11 11 11
6 7 7 8 8 8 9 8 8 8 8 7 7 6 5 5 5 5 4 5 5 5 5 5 5 4 4 4 4 4 4 4 4 4 5 5 6 7 11 11 11 11 11
7 7 7 7 7 7 7 6 7 7 7 6 6 6 5 5 4 4 4 4 4 4 5 4 4 3 3 3 3 4 4 4 3 4 5 5 6 8 11 11 11 11 11
7 7 7 7 7 7 6 6 4 5 5 5 5 4 4 4 4 4 4 4 4 4 4 4 4 3 3 3 3 4 4 3 3 4 4 5 6 8 11 11 11 11 11
7 7 7 7 7 6 6 6 6 5 4 4 4 4 4 4 3 3 3 3 4 4 3 3 4 4 4 4 3 3 4 3 3 4 4 5 6 7 11 12 12 12 10
6 7 7 7 7 6 5 5 5 4 3 4 4 4 4 3 3 3 3 3 3 3 3 4 4 4 4 4 4 3 4 3 3 4 4 4 5 6 11 12 11 11 11
5 6 7 6 5 5 4 4 3 3 3 3 3 3 3 3 3 3 3 3 3 3 3 3 5 5 5 4 4 4 4 3 3 4 4 4 5 6 8 12 11 11 11
5 5 6 5 4 4 3 3 3 2 3 2 3 3 3 3 3 3 3 3 3 3 3 4 4 5 4 4 4 4 4 3 3 3 4 4 4 5 6 12 12 12 11
6 5 4 4 3 3 3 3 2 2 2 2 2 2 2 2 2 3 3 3 3 3 3 3 3 4 4 4 4 4 3 3 3 3 3 4 4 4 6 9 12 12 11
5 4 3 2 2 2 2 2 2 1 1 1 1 2 1 1 2 2 2 3 3 3 3 3 3 4 4 4 4 4 4 4 3 3 3 3 3 4 5 9 12 11 11
3 3 2 2 2 2 1 1 1 1 1 1 1 0 1 1 1 1 2 2 2 2 2 3 3 4 4 4 4 4 4 4 3 3 3 3 3 4 5 8 12 11 11
3 2 2 2 2 1 1 1 0 0 0 0 0 -1 -0 0 1 1 1 1 1 1 2 2 3 4 4 4 4 4 4 4 3 4 4 3 4 4 5 9 12 11 10
2 2 1 1 1 1 1 0 0 0 0 0 -0 -0 0 0 1 1 1 1 0 1 2 2 3 3 4 4 4 4 4 3 3 4 4 5 5 6 7 11 11 11 10

GFSGL_925_temp_015.txt.gz
Temp
11 11 11 10 11 12 13 14 14 13 12 11 11 11 10 10 10 9 9 9 9 8 8 7 7 7 6 6 5 5 5 5 6 7 7 7 7 7 7 6 6 5 6
11 11 11 10 11 11 12 14 13 13 12 12 11 11 10 10 10 9 9 9 8 8 7 7 6 6 6 6 6 5 5 6 5 6 6 6 7 6 6 6 6 6 6
10 10 10 10 10 11 12 13 13 12 12 11 11 11 10 10 9 9 9 9 8 8 7 7 6 6 6 6 6 6 6 6 5 5 6 6 6 7 6 6 6 6 6
10 10 10 10 10 10 11 12 12 12 12 11 11 11 10 10 9 9 9 8 8 7 7 7 6 6 6 6 6 6 6 6 5 5 6 7 6 6 6 6 6 7 6
10 10 10 10 10 10 11 11 12 11 11 11 11 10 10 9 9 9 8 8 7 7 7 6 6 6 6 6 6 6 6 6 6 6 6 7 6 6 7 7 7 8 8
10 10 10 9 9 9 9 10 11 11 11 11 10 10 9 9 9 8 8 7 7 7 6 6 6 5 5 5 6 6 6 6 6 6 6 6 7 7 6 7 8 8 9
10 10 10 9 9 9 9 10 9 10 10 10 10 10 9 9 9 8 7 7 7 7 6 6 5 6 5 5 5 5 6 5 6 7 6 6 6 6 7 7 8 8 10
10 10 9 9 9 9 9 9 9 9 10 9 9 9 9 9 8 7 7 7 7 7 6 5 5 5 5 5 5 6 6 6 6 6 6 6 6 6 7 7 8 9 9
10 10 9 9 9 8 9 9 9 8 8 9 10 9 9 8 8 7 7 6 6 6 6 5 5 5 5 6 7 6 6 6 6 6 6 6 6 6 8 8 9 9 10
10 10 9 9 9 8 9 8 8 9 9 9 9 9 9 8 8 7 7 6 6 6 5 5 6 5 6 6 6 6 6 6 5 6 5 5 6 7 9 9 10 10 11
10 10 9 9 9 9 8 8 8 8 8 8 7 8 8 8 8 7 7 6 6 6 5 5 5 5 5 6 6 6 6 6 5 5 5 5 6 8 10 10 10 11 11
10 10 9 9 8 8 8 7 8 7 7 7 7 6 7 7 7 7 6 6 6 6 6 5 5 5 5 5 5 5 6 6 4 4 5 5 5 6 8 10 11 11 11
10 9 8 8 8 7 7 7 7 7 7 6 6 6 6 7 7 6 5 5 5 5 5 5 5 5 5 4 4 5 5 5 4 4 5 5 5 6 8 10 11 11 12
8 8 7 8 7 7 7 7 7 6 6 6 6 6 5 5 6 6 5 5 5 4 5 5 5 5 5 5 4 4 4 4 4 4 4 5 5 6 8 10 11 11 11
7 7 7 7 7 7 7 7 7 7 8 7 7 7 5 5 5 6 5 4 4 5 5 5 4 4 4 4 4 4 4 4 4 4 4 5 5 6 7 11 11 11 11
7 7 7 7 7 6 6 6 7 9 8 8 8 7 6 6 5 4 4 5 4 4 5 4 4 4 4 4 4 4 5 5 4 4 4 5 5 6 7 11 11 11 10
7 7 7 7 6 6 6 6 4 5 6 6 6 6 5 5 4 4 4 4 4 4 4 4 4 3 3 3 3 4 4 5 4 3 4 4 5 5 7 11 11 10 10
6 6 6 5 5 6 5 5 5 4 3 3 4 5 4 4 4 4 3 3 3 3 3 3 3 3 3 3 3 4 3 5 4 3 4 4 4 5 6 10 11 10 10
4 4 5 5 5 5 5 4 4 3 3 3 3 3 3 4 4 3 3 3 3 3 3 3 3 3 3 4 3 5 3 4 4 3 3 4 4 5 6 8 11 10 10
3 3 3 3 3 3 3 3 3 3 4 3 3 3 3 3 3 3 3 3 2 2 2 3 3 3 4 4 4 4 3 4 4 3 3 4 4 4 5 6 10 10 10
3 3 3 3 3 3 3 3 3 3 3 3 3 3 3 2 3 3 3 3 2 2 3 3 2 3 4 4 3 3 3 4 4 3 3 3 4 4 4 5 10 11 11
4 3 3 3 3 3 3 3 2 2 2 2 2 2 2 2 2 3 2 3 2 2 2 2 2 2 3 3 3 3 3 3 3 3 3 3 3 4 4 5 8 11 11
4 3 3 3 3 3 2 2 2 2 2 2 1 1 1 1 1 1 2 2 2 2 2 2 2 2 4 4 4 3 3 3 3 3 3 3 3 3 4 4 6 12 11
3 3 2 2 2 1 1 1 1 1 1 1 1 0 0 0 0 1 1 1 1 2 2 2 2 3 3 3 4 4 4 3 3 3 3 2 3 3 3 4 6 11 11
3 2 2 2 1 1 1 0 0 0 0 0 0 -0 0 0 0 0 0 1 1 1 1 2 2 3 3 3 3 3 3 3 3 3 3 3 3 3 3 4 6 10 11
2 2 2 1 1 0 0 -0 0 0 0 0 0 -0 -0 0 0 0 1 1 1 1 1 2 2 3 3 3 3 3 3 3 3 3 3 3 3 4 5 5 7 10 11

GFSGL_925_temp_021.txt.gz
Temp
17 16 17 18 18 18 18 18 18 17 17 15 14 14 14 14 13 13 12 12 12 12 12 12 11 11 11 11 10 10 10 10 10 10 10 10 10 10 10 10 10 10 10
16 16 16 17 17 17 18 18 18 17 16 15 14 14 13 13 13 13 12 13 12 12 12 11 11 11 11 10 10 10 10 10 10 10 10 10 10 9 9 9 9 9 9
15 15 15 16 16 16 17 18 18 18 16 15 14 14 14 13 13 13 13 13 13 12 12 12 11 11 11 11 10 10 10 10 9 10 10 9 9 9 9 9 9 9 9
13 14 14 15 15 16 16 17 17 17 16 15 14 14 14 13 13 13 13 13 13 12 12 11 11 11 10 10 10 10 9 9 9 9 9 8 8 8 8 9 9 8 7
13 13 13 14 14 15 15 16 17 17 16 15 15 14 14 13 13 13 13 12 12 12 11 11 11 10 10 9 8 8 8 8 8 7 8 8 8 8 9 8 7 7 7
13 12 12 12 13 14 15 15 16 17 16 16 15 14 13 13 13 12 12 12 12 12 11 11 11 10 9 9 8 8 7 7 7 7 8 8 8 8 8 7 6 6 6
13 12 11 12 12 13 14 14 15 16 16 16 15 14 13 13 13 12 11 11 11 11 11 11 10 10 9 9 8 8 8 8 8 8 8 8 8 8 7 6 6 6 6
13 13 12 12 12 12 13 14 14 15 16 15 15 14 13 13 12 11 10 11 11 11 11 10 10 9 9 8 8 7 8 8 8 9 9 8 8 7 7 6 6 6 6
13 12 12 12 11 10 11 13 14 15 15 15 15 14 13 12 11 10 9 10 10 10 10 10 9 9 8 8 7 7 8 8 9 9 8 7 7 7 6 6 6 7 9
12 11 11 11 11 10 11 12 13 14 14 15 14 13 13 12 10 9 9 10 11 11 10 10 9 8 7 7 6 7 8 8 7 7 7 7 6 6 5 5 6 9 10
10 11 10 10 10 10 10 11 13 14 14 14 14 13 12 12 9 9 9 10 11 11 10 10 9 8 7 6 6 7 7 6 6 7 6 6 6 5 5 6 7 9 10
9 9 10 10 10 10 10 9 13 13 14 14 13 13 12 12 9 8 8 9 10 10 10 9 9 8 6 6 6 6 6 6 7 6 5 5 5 5 5 6 8 10 10
7 9 10 10 11 10 10 8 12 13 13 13 13 12 12 12 9 8 8 8 8 8 9 8 7 7 7 6 6 6 6 7 7 6 5 5 5 5 6 7 9 11 12
7 9 10 11 11 10 9 9 10 13 13 13 12 11 11 11 9 8 7 7 7 7 7 7 6 6 6 6 6 7 7 7 6 6 5 5 5 5 6 6 8 11 12
6 8 10 10 11 9 9 8 11 13 13 12 11 11 10 10 9 8 8 8 8 7 7 7 7 7 6 7 7 7 7 7 7 6 5 5 5 5 6 6 8 11 12
5 6 8 7 8 10 8 8 9 12 12 11 11 11 10 10 9 8 8 8 7 6 6 6 7 6 7 7 7 7 7 7 6 6 5 4 4 5 5 6 7 10 12
4 5 6 5 6 9 8 7 8 9 11 10 10 9 9 8 8 7 6 6 5 5 5 6 6 6 7 7 6 6 6 6 6 6 5 4 4 5 5 6 7 10 10
3 4 4 3 4 8 10 7 7 8 7 6 6 6 6 5 5 5 5 5 5 5 5 6 6 6 6 6 6 6 5 5 5 5 5 4 4 4 5 5 6 7 10
3 2 2 3 6 9 9 9 8 7 6 5 5 4 5 4 4 4 4 5 6 6 6 6 6 6 6 6 6 5 5 5 5 5 5 4 3 4 4 5 5 6 10
3 2 2 3 5 7 7 7 6 6 6 6 5 5 4 4 4 4 4 5 6 6 6 6 5 6 6 5 5 5 5 6 6 6 5 4 3 4 4 4 4 5 8
3 2 2 2 3 5 5 5 5 5 5 5 5 4 4 5 5 5 5 5 6 6 6 6 5 5 5 5 5 5 5 6 6 5 5 4 3 3 3 4 4 5 6
3 3 3 3 3 4 4 4 5 5 5 5 4 4 4 5 5 5 5 5 5 5 5 5 5 5 5 5 5 5 5 5 5 5 5 4 3 3 3 3 4 4 6
3 3 3 3 3 4 4 4 5 5 5 5 4 4 4 4 5 5 5 5 5 4 4 4 5 5 5 5 5 5 5 5 5 4 4 3 3 3 3 3 3 4 5
2 2 3 3 4 4 4 4 4 4 4 4 4 5 4 4 4 4 4 4 4 4 4 4 4 4 4 4 5 5 5 4 4 4 3 3 2 3 2 3 3 3 4
2 3 3 4 4 4 4 4 4 4 4 4 4 4 3 3 3 3 3 3 3 3 4 4 3 3 3 4 4 4 3 3 4 4 3 2 2 3 2 3 3 4 4
2 2 3 2 3 3 3 3 3 3 3 3 3 3 3 2 2 2 2 2 2 2 3 3 3 3 3 3 3 3 3 3 3 3 2 2 2 2 2 3 3 4 5

GFSGL_925_temp_024.txt.gz
Temp
16 15 15 14 15 15 17 18 18 18 17 16 15 14 15 14 13 13 13 12 12 12 12 12 12 11 11 11 11 11 10 10 7 9 9 10 10 10 10 9 9 9 9
15 14 13 13 14 14 16 16 17 18 17 16 15 14 14 14 13 13 12 12 12 12 12 12 12 12 11 11 10 10 10 10 10 8 9 9 9 9 9 8 9 9 9
15 14 13 13 13 13 14 15 16 17 17 16 15 14 14 13 13 12 12 12 12 12 12 12 11 11 11 11 10 10 10 10 10 9 8 8 8 8 8 8 8 8 8
14 14 13 12 12 12 12 14 14 16 17 16 15 14 13 13 13 12 12 12 12 12 12 12 11 11 11 11 10 10 9 9 8 8 7 7 7 7 7 7 7 8 8
14 14 13 12 11 11 10 11 13 15 16 17 15 14 13 13 13 12 12 12 13 12 12 12 12 11 11 10 10 9 8 8 7 7 6 6 7 7 7 7 7 7 7
13 13 13 13 11 11 10 9 11 13 15 16 15 14 13 13 13 13 13 13 13 12 12 12 11 11 10 10 9 8 8 8 7 7 7 7 8 7 7 7 7 7 7
13 13 13 12 12 11 10 9 8 9 14 15 15 14 13 13 13 13 13 13 12 12 12 11 11 11 10 10 9 9 8 8 8 8 8 7 7 8 7 7 7 6 6
12 12 12 12 11 11 11 8 8 8 12 14 15 14 13 13 13 12 12 12 12 11 11 11 11 10 10 9 8 8 7 7 7 8 8 8 7 7 7 7 6 6 6
12 12 12 11 10 10 10 9 9 7 8 14 15 14 13 13 13 12 11 11 11 11 11 11 10 10 9 8 8 7 7 7 7 7 7 7 7 7 7 6 6 6 6
11 11 10 10 9 9 9 10 9 8 7 13 14 14 13 12 12 11 11 11 11 11 10 10 10 9 9 8 7 6 6 6 7 6 6 6 6 6 6 5 5 6 6
10 10 9 8 8 8 9 9 9 8 7 11 14 13 12 12 11 11 10 10 10 10 10 10 10 9 8 7 7 6 6 7 6 6 6 6 5 5 5 5 5 6 7
10 9 8 8 8 8 9 10 9 8 7 9 13 12 12 11 10 10 10 10 10 10 10 10 9 8 7 7 6 6 6 7 6 6 6 6 5 5 5 5 6 7 9
9 8 7 7 7 8 9 9 9 8 7 9 13 12 10 9 9 9 9 10 10 10 9 8 7 7 7 7 7 7 6 7 7 6 6 5 5 5 5 5 7 9 10
8 7 6 6 6 8 10 10 8 7 7 9 12 11 10 8 8 8 9 9 8 9 8 8 7 7 7 7 7 7 7 7 7 6 6 5 5 5 5 5 6 7 11
7 6 5 5 6 7 9 8 7 7 8 10 12 11 9 8 8 8 8 8 8 7 7 7 7 6 7 7 7 7 7 6 6 6 6 5 4 5 5 5 6 9 10
6 5 4 4 5 6 6 8 8 7 7 10 11 11 9 9 8 8 8 8 7 7 7 7 7 6 6 7 7 6 6 6 6 5 5 4 4 4 5 5 6 8 10
4 4 4 4 4 4 5 7 6 6 7 12 11 10 9 9 8 7 8 8 7 6 6 6 6 6 6 6 6 6 6 5 5 6 5 5 4 4 5 5 5 6 10
4 4 4 4 3 3 5 5 5 7 7 8 9 9 8 8 8 7 7 6 5 5 6 6 6 6 6 6 6 5 5 5 5 6 5 5 4 4 4 4 5 6 9
3 3 2 2 2 3 5 5 5 5 6 5 5 6 7 7 6 5 5 5 5 5 5 6 6 6 6 6 5 5 5 5 6 6 5 5 4 4 4 4 4 5 7
3 2 1 1 4 5 4 4 4 5 5 5 4 4 4 4 4 4 5 6 6 6 5 6 6 6 6 5 5 5 5 5 5 6 5 4 4 3 3 4 4 4 5
2 2 2 3 4 4 3 3 4 4 4 4 4 4 4 4 4 4 5 5 6 6 6 5 5 5 5 5 5 5 5 5 5 5 4 4 4 3 3 3 4 4 5
2 1 2 3 3 3 3 3 4 4 4 4 4 4 4 5 5 5 5 5 5 5 5 5 5 5 5 5 5 5 5 5 5 4 4 4 3 3 3 3 3 4 4
2 1 2 3 3 3 3 4 4 4 3 3 3 4 5 5 5 5 5 5 5 5 5 5 5 5 5 5 5 5 5 4 4 4 4 4 3 3 3 3 3 3 4
2 1 1 1 2 2 2 2 3 4 3 3 3 4 4 4 4 4 5 4 4 4 4 4 4 4 4 4 4 4 4 4 4 4 4 4 3 3 2 2 3 3 4
2 2 2 2 2 2 2 3 4 4 4 4 4 4 3 3 4 3 3 4 4 4 4 4 4 4 3 3 3 4 3 3 3 3 3 3 3 2 2 2 3 3 4
2 2 2 2 2 3 3 3 3 3 3 3 3 3 3 3 2 2 3 3 3 3 3 3 3 3 3 3 3 2 3 2 2 2 3 3 2 2 2 2 3 3 3

GFSGL_925_temp_027.txt.gz
Temp
14 14 14 14 14 14 13 13 12 13 14 15 15 14 14 14 14 14 14 14 14 13 13 13 13 12 12 11 11 11 11 10 6 8 9 10 9 9 9 9 9 9 9
14 14 14 13 13 13 12 12 12 12 13 14 14 13 13 14 14 13 13 12 13 13 13 12 12 12 11 11 11 11 10 10 9 7 9 9 9 8 8 8 8 8 8
13 13 13 13 13 13 12 12 12 11 11 13 14 14 13 13 13 13 13 12 12 13 12 12 12 12 11 11 11 11 10 10 9 8 7 8 8 7 7 7 7 7 8
12 12 12 12 13 13 12 11 11 10 9 11 12 12 14 13 13 12 12 11 11 12 12 12 12 11 11 11 11 10 10 9 8 7 7 7 7 7 7 6 6 6 6
12 12 12 12 12 12 12 11 10 10 10 9 9 10 13 13 12 11 11 11 11 11 12 12 12 12 11 11 10 10 9 8 8 7 7 6 5 5 6 7 6 6 6
11 11 11 12 11 11 11 11 10 10 9 7 7 9 12 13 13 12 11 11 12 12 12 12 12 11 11 10 10 10 9 8 8 7 6 5 6 6 6 6 6 5 6
10 10 10 11 11 11 10 10 10 9 9 7 6 8 12 12 12 12 11 11 12 11 12 12 11 11 11 10 10 10 9 9 8 8 7 7 6 6 6 6 6 6 6
10 10 10 10 10 9 9 9 9 9 8 7 6 7 12 12 12 12 11 11 12 12 12 12 11 11 11 10 9 9 8 8 7 7 7 7 7 6 6 6 6 6 6
9 9 9 9 9 9 8 8 8 7 8 7 5 7 11 11 12 12 11 11 12 12 12 11 11 11 10 9 8 8 7 7 7 6 6 6 6 6 6 6 5 6 6
9 9 9 9 9 8 7 7 7 7 7 7 5 7 10 12 12 12 11 11 11 11 11 11 11 10 9 9 8 7 7 7 6 6 6 6 6 6 5 5 5 5 6
9 8 8 8 8 8 7 7 7 7 7 8 6 7 8 12 12 11 11 11 11 10 10 10 10 10 9 8 8 7 6 6 6 6 6 6 6 5 5 5 5 5 5
8 7 8 7 7 7 6 6 6 7 7 7 6 7 9 11 12 11 11 11 11 10 10 10 10 9 8 7 7 6 6 7 6 6 6 5 5 5 5 5 5 5 7
6 6 6 6 6 6 6 6 6 7 7 7 6 7 9 11 11 10 10 10 11 10 10 10 9 9 7 7 6 6 7 6 6 6 5 5 5 5 4 5 5 8 10
5 5 5 5 6 6 5 5 6 7 7 7 7 7 8 9 9 9 9 10 10 10 9 8 8 7 7 7 7 7 6 6 6 5 5 5 5 4 5 5 6 9 10
4 4 5 5 5 5 4 4 6 7 7 7 7 7 7 8 8 9 9 8 8 8 8 7 6 6 6 6 7 6 6 6 5 5 5 5 4 4 5 5 6 8 10
4 4 4 4 5 4 3 4 5 7 7 7 7 7 8 9 9 9 8 9 8 8 7 7 6 6 6 6 6 6 5 5 5 5 5 5 4 4 5 5 6 7 10
4 4 4 3 4 3 4 4 4 6 7 6 7 7 8 8 8 8 8 8 8 8 7 6 6 6 6 6 6 5 5 5 5 6 5 5 4 4 4 5 5 6 10
3 3 3 4 3 3 3 3 5 6 6 6 7 8 9 8 7 8 8 7 6 7 6 6 6 6 6 6 5 5 5 5 6 6 5 4 4 4 4 4 4 5 9
2 2 3 3 2 3 2 4 5 6 6 6 6 7 9 7 7 7 6 5 5 5 6 6 6 6 6 5 5 5 5 5 5 5 4 4 4 3 4 4 4 5 6
2 2 2 2 2 2 3 4 4 5 6 6 6 5 5 5 5 5 5 6 5 5 5 6 6 6 5 5 5 5 5 5 5 5 4 4 4 3 3 3 4 4 5
1 1 3 3 3 3 4 4 4 4 4 4 4 4 5 4 4 4 5 5 5 5 5 5 5 5 5 5 5 5 5 5 4 4 4 4 3 3 3 3 3 4 4
1 2 3 3 3 3 3 3 3 3 3 3 3 3 4 4 4 5 5 5 5 5 5 5 5 5 5 5 5 5 5 4 4 4 4 4 3 3 3 3 3 4 4
0 1 2 3 3 3 3 3 2 2 3 3 3 4 4 4 4 5 5 5 5 5 5 5 5 5 5 5 5 4 4 4 4 4 4 4 3 3 3 2 3 3 4
1 0 1 2 2 2 3 3 2 3 3 3 2 3 4 4 4 5 5 5 5 5 5 5 5 4 4 4 4 4 4 4 3 3 3 3 3 3 3 2 3 3 4
1 1 1 1 1 1 2 2 2 2 2 3 3 4 4 4 4 4 4 4 4 4 4 4 4 4 3 4 3 3 3 3 3 2 3 3 3 2 2 2 2 3 3
1 1 1 1 1 1 1 1 1 1 1 1 2 3 3 3 3 3 3 3 3 4 4 3 3 3 3 2 2 2 3 3 2 2 3 3 3 2 2 2 2 3 3

GFSGL_925_temp_030.txt.gz
Temp
13 13 13 13 13 13 13 13 12 13 12 11 11 12 13 12 13 12 13 13 13 12 12 14 14 13 13 12 12 11 11 10 6 9 9 10 9 9 9 9 9 8 8
12 12 12 12 12 12 12 12 12 12 12 11 10 10 12 13 13 12 12 12 12 11 12 13 13 13 12 12 11 11 11 10 10 7 9 9 9 9 8 8 8 8 8
12 11 11 11 11 11 11 12 12 12 11 10 10 10 10 11 12 12 12 11 12 11 12 12 12 12 12 11 11 11 10 10 10 8 8 8 8 8 8 8 7 8 8
11 10 11 11 10 10 11 11 11 11 10 11 10 9 9 9 10 11 11 11 11 11 11 12 12 13 12 11 11 10 10 10 9 8 7 7 7 8 7 7 7 7 7
10 10 10 10 10 10 10 10 11 10 10 10 9 9 8 8 9 11 12 11 11 10 11 11 12 13 12 12 11 10 10 9 8 7 6 6 6 6 6 7 5 6 6
9 9 9 10 10 10 9 10 10 10 9 9 8 8 8 8 8 9 12 11 10 10 10 11 11 12 12 11 11 11 11 9 8 7 7 5 6 6 6 6 5 4 5
9 9 9 9 9 9 9 9 9 9 8 7 7 6 7 6 7 8 10 10 9 10 10 10 11 11 11 11 10 9 10 9 8 8 7 7 6 6 6 6 5 4 5
9 9 9 8 9 8 8 8 8 8 7 7 6 6 6 6 6 7 11 9 9 9 10 11 11 11 11 11 10 10 10 9 9 8 7 7 7 6 6 6 5 5 6
8 8 8 8 8 8 8 7 8 7 7 6 6 6 5 5 6 8 10 8 8 9 10 11 12 11 11 10 10 10 9 8 8 7 6 6 6 6 6 6 5 5 6
8 8 8 8 8 7 7 7 7 6 6 6 6 6 6 5 6 8 8 7 8 8 10 11 12 11 11 10 10 9 8 7 7 6 6 6 6 6 6 6 5 5 5
6 7 7 7 7 7 7 6 6 6 6 6 5 6 6 5 6 8 9 7 7 8 8 9 10 11 10 9 9 8 8 7 6 6 6 6 6 6 6 5 4 4 5
7 6 6 6 6 6 5 5 5 5 5 5 5 6 5 5 6 7 8 7 8 9 8 9 10 10 9 8 8 7 6 7 6 6 5 5 5 5 5 4 4 5 5
6 6 5 5 5 4 4 5 5 5 5 5 6 6 5 6 7 8 9 8 8 9 10 11 10 9 9 8 7 6 6 6 6 5 5 5 5 5 5 5 5 7 9
4 5 4 4 4 4 4 5 5 4 4 5 6 6 6 6 7 8 8 9 9 10 10 10 9 8 8 7 6 6 6 6 5 5 5 5 6 4 4 5 5 6 9
3 4 3 4 4 4 4 4 5 4 4 5 6 6 6 6 7 8 8 8 8 9 9 8 8 7 6 6 6 6 6 5 5 5 5 5 5 3 4 5 5 7 9
2 3 4 4 4 3 3 4 4 4 5 5 5 6 6 7 8 9 8 9 10 9 7 6 6 6 6 5 5 5 5 5 5 5 5 5 4 3 4 5 5 6 9
3 3 3 3 3 3 3 4 4 4 4 6 6 6 6 7 8 8 9 9 9 7 5 5 5 6 5 5 5 5 5 5 5 5 5 5 4 4 4 5 5 6 9
2 3 3 3 2 2 3 3 4 3 4 6 6 5 6 7 7 7 7 7 6 7 6 6 6 6 5 5 5 5 5 5 5 5 4 4 4 3 4 4 5 5 8
2 2 2 2 2 3 3 3 3 3 5 5 5 5 6 7 7 7 7 6 6 5 6 6 6 5 5 5 5 5 5 4 4 4 4 4 4 3 3 4 4 5 6
1 2 2 2 2 2 2 2 3 5 5 5 6 6 6 6 5 5 5 6 6 6 6 6 5 5 5 5 5 5 5 4 4 4 3 3 3 3 3 3 4 4 5
1 2 3 3 3 3 4 4 5 5 5 5 5 5 5 4 4 4 4 6 6 5 5 5 5 5 5 5 5 4 4 4 4 4 3 3 3 3 3 3 3 4 5
1 2 2 3 3 3 3 3 3 4 4 3 3 4 4 4 4 4 5 5 5 5 5 5 5 5 5 5 4 4 4 4 4 3 3 3 3 3 3 3 3 4 4
0 1 2 2 2 2 2 2 3 3 3 3 3 3 4 4 4 4 5 5 5 5 5 5 5 5 4 4 4 4 4 3 3 3 3 3 3 2 2 2 3 3 4
1 1 1 2 2 2 2 2 2 2 3 3 3 3 4 4 4 5 5 5 5 5 5 5 5 4 4 4 4 4 3 3 3 3 3 3 2 2 2 2 3 3 3
0 0 0 1 1 1 1 2 2 1 2 2 3 3 4 4 4 4 4 5 5 4 4 4 4 4 4 4 4 3 4 3 3 3 3 3 2 2 2 2 3 3 3
0 0 0 0 0 0 1 1 1 1 1 1 2 3 3 4 4 4 4 4 4 4 4 4 4 4 3 3 3 3 3 2 2 3 2 2 2 2 2 2 2 2 3

GFSGL_925_temp_033.txt.gz
Temp
12 12 12 12 11 11 11 11 11 11 11 11 11 11 11 11 11 11 12 11 11 11 11 11 13 13 12 13 12 12 12 12 7 10 11 11 10 10 10 9 9 9 9
12 12 11 11 11 11 11 11 11 11 11 11 11 11 10 11 11 10 10 11 11 11 10 10 11 12 10 12 12 11 11 11 11 7 10 10 9 10 9 9 9 8 8
11 11 11 10 10 10 10 10 10 10 10 10 10 9 10 10 10 10 10 10 11 11 10 9 10 11 10 11 12 11 11 11 10 9 9 9 9 9 8 8 8 8 8
9 10 10 10 10 10 9 10 10 10 9 9 9 9 9 9 9 9 9 9 10 10 10 10 10 10 10 11 11 11 11 10 9 8 8 8 8 8 7 7 6 7 7
8 9 10 10 10 10 9 9 9 9 9 9 9 9 8 8 7 8 8 8 9 10 9 9 9 10 11 12 12 11 11 9 8 7 6 6 6 6 6 7 6 6 6
8 8 8 8 8 9 9 9 9 9 8 8 9 8 7 7 7 7 8 8 8 9 8 8 9 9 10 9 11 12 12 10 8 7 6 6 6 7 7 6 6 4 3
7 7 8 8 8 8 9 8 8 8 8 8 7 7 7 6 6 7 7 7 7 8 9 8 8 9 10 10 10 10 11 11 11 10 8 8 7 7 7 6 5 4 4
7 7 7 8 7 7 8 8 8 8 7 7 7 6 6 5 6 7 7 7 7 8 9 8 8 9 9 10 10 9 9 9 9 9 8 8 7 7 6 6 6 5 4
6 7 7 7 7 7 7 7 7 7 6 6 6 5 5 5 6 6 6 6 6 7 9 8 8 9 10 11 10 10 9 9 8 8 8 7 6 6 6 6 5 4 4
6 6 6 6 6 6 6 6 7 6 6 5 5 5 5 5 5 6 6 5 7 6 7 6 7 9 10 10 10 10 8 8 8 8 7 7 6 6 6 5 5 4 5
4 5 5 6 6 6 6 6 5 5 5 4 4 5 5 5 5 5 5 6 6 4 4 5 7 8 10 9 11 10 10 8 7 6 6 6 6 6 6 6 5 3 4
2 3 3 4 5 5 5 5 5 4 4 4 4 5 4 5 5 5 6 7 6 5 5 6 8 9 9 10 10 9 8 7 6 6 6 5 5 5 5 5 5 4 4
2 2 2 3 4 4 4 4 3 3 3 4 5 4 5 5 5 5 7 6 5 6 6 8 9 9 8 9 8 7 7 6 6 5 5 5 5 5 6 5 5 6 7
1 2 1 2 3 3 3 3 3 4 4 5 4 4 4 5 5 6 7 6 6 6 6 8 9 8 8 7 7 6 6 6 6 5 5 5 5 5 5 4 5 6 8
1 1 2 2 1 2 3 3 3 3 4 4 4 4 4 5 6 7 7 6 6 6 7 7 7 6 6 6 6 6 5 5 5 5 4 4 5 4 4 5 6 7 9
1 2 2 2 3 3 3 2 3 4 4 4 5 5 5 5 6 7 7 7 6 7 7 6 5 5 5 5 5 5 5 5 5 5 4 5 4 3 4 5 6 8 8
1 2 3 3 2 2 3 3 3 4 4 4 4 6 6 5 7 6 7 6 7 7 6 5 4 5 5 5 5 5 4 4 5 4 4 4 4 3 4 4 5 7 8
1 2 2 2 2 2 2 2 3 3 3 3 6 5 5 6 7 6 6 6 6 6 5 5 4 5 5 5 5 4 4 4 4 4 4 4 3 3 4 4 5 6 8
1 2 2 2 2 2 2 3 3 3 3 5 5 5 6 6 6 6 7 6 5 4 5 5 5 5 5 5 4 4 4 4 4 3 3 3 3 3 3 4 4 6 8
1 2 3 3 3 3 2 2 2 3 4 5 5 5 6 6 5 4 5 5 5 4 5 5 5 5 5 4 4 4 4 4 3 3 3 3 3 2 3 3 4 5 7
1 2 2 3 3 3 4 3 4 4 4 5 5 5 5 4 4 4 4 4 4 5 5 5 5 5 4 4 4 4 4 3 3 3 3 2 3 2 3 3 4 5 7
1 2 2 2 2 3 3 4 3 3 3 3 3 3 4 4 4 4 4 5 5 5 5 5 5 4 4 4 4 4 3 3 3 3 2 2 2 3 3 3 3 4 5
0 1 2 1 2 2 2 2 3 3 3 2 3 3 3 3 4 4 4 4 5 5 5 5 4 4 4 4 4 4 3 3 3 3 2 2 2 2 2 3 3 4 4
0 0 0 1 2 2 2 2 2 2 2 2 3 3 3 4 4 4 4 5 5 5 4 4 4 4 4 4 3 3 3 3 3 3 2 2 2 3 2 3 3 3 4
0 0 -0 -0 0 0 1 1 2 2 2 2 2 3 3 3 4 4 4 4 4 4 4 4 4 4 4 4 3 3 3 2 2 2 2 2 2 2 2 2 3 3 3
-0 -0 -0 -0 -0 -0 -0 0 0 1 1 1 2 2 3 3 3 4 4 4 4 4 4 4 4 3 3 3 3 3 2 1 1 1 2 1 1 1 2 2 2 2 3

GFSGL_925_temp_036.txt.gz
Temp
12 12 12 12 12 11 11 10 10 10 10 9 10 10 10 10 11 10 10 10 10 10 10 10 10 10 10 11 11 11 13 13 10 10 12 11 11 11 10 10 10 10 10
10 10 9 8 9 9 11 10 10 10 10 9 9 9 9 10 9 10 10 10 10 9 10 10 10 9 9 9 9 10 11 12 12 8 11 11 11 11 11 10 10 9 9
8 8 8 8 8 7 10 10 10 10 9 9 9 9 9 8 8 9 9 9 9 9 9 9 10 9 8 7 8 8 9 10 11 11 10 10 10 10 9 9 9 9 8
8 8 7 7 7 7 9 9 9 9 9 9 9 9 8 8 8 8 8 8 8 8 8 9 9 9 9 7 7 8 8 8 9 9 9 8 9 8 8 8 8 8 8
7 7 7 7 7 7 7 8 8 9 9 9 8 8 8 8 8 7 7 7 7 7 8 8 8 9 9 8 7 7 7 7 7 6 6 6 6 6 6 7 7 7 7
6 6 6 6 7 6 7 7 7 7 7 8 8 8 8 7 7 7 7 7 7 7 7 7 7 8 8 7 7 7 8 8 7 7 5 5 6 7 8 7 6 4 3
5 5 5 6 6 6 6 7 6 6 6 7 7 7 7 7 6 7 7 7 7 7 7 7 7 8 7 8 8 9 8 8 12 11 7 8 8 9 8 7 6 5 4
4 4 4 5 5 6 6 6 6 6 6 6 6 7 7 6 6 6 6 7 7 7 7 6 6 7 8 7 7 9 8 8 9 10 11 11 10 9 8 7 7 5 5
3 3 3 4 4 5 5 5 6 5 5 5 6 5 5 5 5 5 6 6 6 6 6 6 6 7 7 7 7 8 8 8 9 9 10 9 8 8 7 6 5 4 4
3 2 2 2 2 3 4 5 4 5 4 5 5 5 4 4 4 5 5 6 5 6 6 6 7 7 7 7 7 7 6 8 8 7 7 7 7 6 6 6 5 4 4
2 2 1 1 1 1 2 3 4 3 4 4 4 4 3 3 4 4 5 5 5 6 5 6 6 6 6 8 8 7 9 9 7 7 7 7 6 6 6 6 6 5 3
2 2 1 1 1 1 2 3 3 3 3 3 2 2 3 4 4 4 5 6 6 6 5 5 5 6 7 7 7 8 9 8 7 6 6 6 6 6 6 6 6 5 4
2 2 1 1 1 1 1 2 2 3 2 2 2 3 4 5 4 5 5 5 6 6 5 5 6 6 8 7 8 7 7 7 6 5 5 5 5 6 6 6 5 5 5
2 1 1 1 2 2 2 2 2 2 2 2 3 3 4 4 4 4 5 5 5 5 5 5 7 7 7 7 7 6 7 6 6 5 5 5 5 5 5 4 5 6 7
2 1 1 2 2 2 2 2 2 3 3 2 3 3 4 4 4 4 5 5 4 5 6 7 6 5 5 5 5 5 5 5 5 4 4 4 5 4 4 5 6 7 8
1 1 1 1 2 2 2 2 3 3 3 4 4 5 5 5 4 5 5 5 6 6 6 6 4 4 3 3 4 4 4 4 4 4 4 4 3 3 4 5 6 8 7
1 1 2 2 2 1 2 2 3 3 3 4 4 4 4 5 5 5 5 6 6 6 5 4 4 3 3 4 4 4 3 3 4 4 4 3 3 4 4 5 7 8 8
1 1 1 2 2 2 2 2 2 2 3 3 3 5 5 6 6 6 6 5 5 4 4 4 3 3 4 4 4 4 3 3 3 4 4 3 3 3 4 4 6 8 8
1 1 2 3 3 3 2 2 2 3 3 2 5 6 6 6 6 5 5 5 4 4 4 3 3 4 3 4 4 3 3 3 3 3 3 3 3 3 3 4 6 8 8
1 1 2 2 2 3 3 2 2 2 2 5 5 6 4 4 4 4 4 4 4 3 3 3 3 4 4 4 4 3 3 3 3 3 3 3 3 3 3 4 6 7 7
0 1 2 1 2 3 4 3 3 4 4 5 5 4 4 4 4 4 4 4 4 3 3 3 3 4 4 4 3 3 2 2 2 2 3 3 3 3 3 4 6 7 7
0 0 1 1 1 2 3 3 3 3 4 3 3 3 4 3 3 3 4 4 4 4 4 4 4 4 4 4 3 3 2 2 2 2 2 3 3 3 3 4 5 6 7
0 -0 0 1 1 1 1 2 2 2 2 3 3 3 3 3 3 4 3 3 4 4 4 4 4 3 3 3 3 3 2 2 2 2 2 3 3 3 3 3 4 5 6
0 -0 -0 0 0 1 2 2 2 2 2 3 3 2 2 2 3 3 3 3 4 4 4 4 4 3 3 3 3 2 2 2 2 2 2 2 2 3 3 3 3 4 5
-0 -0 -0 -0 -0 0 1 1 1 1 2 2 2 2 2 2 3 3 3 4 4 4 3 3 3 3 3 3 3 2 2 2 2 2 2 2 2 2 2 2 3 3 4
-1 -1 -1 -0 -0 -0 -0 -0 0 1 1 1 2 1 1 1 2 3 3 3 3 3 3 3 3 3 3 2 2 1 1 0 1 1 1 1 2 1 1 1 2 2 3

GFSGL_925_temp_042.txt.gz
Temp
10 10 10 10 10 10 10 10 10 10 10 10 10 10 11 11 11 11 11 12 12 12 12 12 12 12 12 13 13 12 12 11 11 14 16 17 15 14 14 12 13 13 12
9 9 9 9 9 9 9 9 9 9 9 10 9 9 10 11 11 11 11 11 12 12 12 12 12 12 12 12 12 12 11 11 10 11 13 16 14 14 14 12 13 12 12
8 7 7 7 7 7 7 8 8 8 9 9 9 9 10 10 10 10 11 11 11 11 11 12 11 11 12 12 12 12 12 11 9 9 10 12 14 14 13 12 12 12 12
7 7 6 6 6 6 6 6 7 7 8 8 9 9 9 9 9 10 10 10 10 10 11 11 11 11 11 11 12 12 12 10 9 8 7 9 12 12 12 13 12 11 12
6 6 7 6 6 6 5 6 6 6 7 7 7 8 8 8 8 8 8 9 10 10 10 10 10 10 10 10 10 11 11 10 9 8 7 9 11 12 11 12 13 12 11
6 6 5 5 4 5 4 5 5 5 5 6 6 7 7 8 8 8 8 9 10 10 10 10 10 9 9 9 9 9 10 9 9 8 7 9 11 12 11 12 13 13 13
4 5 4 4 4 4 3 3 4 4 4 5 6 6 5 6 7 7 7 7 9 10 10 10 10 10 9 9 9 9 9 10 9 9 7 9 10 11 12 12 12 12 12
4 4 4 4 4 3 2 2 2 3 3 4 5 5 5 5 6 6 6 7 7 9 9 9 9 9 9 9 8 7 9 10 9 8 7 7 9 10 12 12 12 12 12
4 4 4 3 3 2 2 2 2 2 2 3 4 5 5 6 6 6 6 7 7 8 8 8 8 8 8 8 8 7 8 9 10 8 7 7 7 8 10 11 11 11 12
4 3 3 3 2 2 2 2 1 1 2 2 2 4 4 5 5 6 6 6 7 8 8 8 7 7 7 7 7 7 8 9 9 8 8 7 7 7 9 10 11 11 11
3 3 3 2 2 2 2 2 1 2 1 2 3 4 4 5 5 6 6 6 6 7 7 7 7 7 7 7 7 7 8 8 8 7 7 7 7 7 8 9 11 10 11
3 2 2 2 2 2 2 1 1 3 3 3 4 4 5 5 5 6 5 5 5 6 6 6 6 6 6 7 7 7 8 8 6 6 6 7 8 8 9 9 9 9 9
2 2 2 2 2 2 2 1 2 3 3 4 5 5 5 5 6 5 5 5 6 6 6 6 6 6 6 7 7 8 7 7 6 6 7 8 8 9 9 9 9 8 7
1 2 1 2 2 2 2 2 2 3 2 4 5 5 5 5 5 5 5 4 4 5 5 5 6 6 6 7 7 7 7 6 6 7 7 9 9 9 9 9 8 7 5
1 1 2 2 2 2 2 2 2 2 3 3 3 3 3 4 4 4 4 4 4 4 4 5 4 5 6 5 6 5 5 5 6 7 8 9 8 9 9 8 6 5 6
1 1 1 2 2 2 2 3 2 2 3 3 4 4 4 4 4 4 4 4 4 5 4 6 6 5 4 4 5 5 5 6 6 8 8 8 8 8 7 5 5 6 9
1 1 1 1 2 2 2 2 3 3 3 3 3 3 4 6 5 6 5 5 5 5 4 4 4 4 4 4 5 5 6 5 6 6 7 7 6 5 5 5 6 8 9
1 1 1 1 1 1 2 3 3 3 3 3 5 5 5 5 5 5 4 4 4 3 3 3 3 3 4 4 5 4 4 4 5 6 5 4 4 4 5 7 9 10 10
1 1 1 1 1 1 2 3 3 3 4 4 4 4 4 4 4 5 5 5 4 4 3 4 4 4 4 4 4 4 4 4 4 3 2 3 3 4 6 9 10 10 10
0 0 1 1 1 1 2 4 4 4 4 4 4 4 5 5 5 5 5 5 5 4 4 4 4 4 3 3 3 3 3 3 2 2 2 3 4 5 7 9 10 10 10
-0 0 0 0 0 1 3 3 3 3 3 4 4 4 4 4 4 4 3 3 3 3 3 3 3 2 2 2 2 3 3 2 2 2 3 3 4 5 7 9 9 9 9
-0 0 0 0 0 1 2 3 3 3 3 3 3 3 3 2 2 2 2 2 2 2 2 2 2 2 2 2 3 3 2 1 2 2 3 3 5 6 8 9 9 9 9
-0 -0 -0 0 1 1 1 2 2 2 2 2 2 2 2 1 1 1 1 2 2 2 2 2 2 2 2 2 2 2 1 1 2 2 2 3 4 6 7 7 8 9 9
-1 -0 -0 -0 0 0 0 1 2 1 2 1 1 1 1 1 1 1 1 2 2 2 2 2 2 2 2 2 1 1 1 1 2 2 2 3 4 5 6 7 7 8 8
-1 -1 -0 -0 -0 0 0 0 -0 1 1 1 0 0 0 0 1 1 1 1 1 1 2 2 1 1 1 1 1 1 1 2 2 2 2 3 3 4 5 6 7 7 7
-1 -1 -1 -0 -1 -0 -0 -0 -0 -0 0 0 0 0 0 1 1 1 1 1 1 1 1 1 1 1 0 0 1 1 1 1 1 2 2 2 3 3 4 5 6 7 7

GFSGL_925_temp_045.txt.gz
Temp
12 12 11 11 10 10 10 10 10 10 10 11 11 11 11 11 11 11 12 12 12 13 13 13 13 13 13 13 14 14 14 13 13 14 15 15 16 16 16 15 14 14 13
11 11 10 9 9 9 9 9 9 9 9 9 10 10 10 11 11 11 12 12 12 13 13 13 13 13 13 13 13 13 14 13 13 12 13 14 13 15 15 15 13 14 13
10 9 9 9 9 9 8 8 8 8 7 8 8 8 9 9 10 10 11 11 12 12 12 13 13 13 13 13 13 13 13 14 13 12 12 12 12 14 15 15 13 13 14
9 9 9 8 8 8 7 7 6 6 6 6 7 7 8 8 9 9 9 9 10 11 11 12 12 12 13 12 12 12 13 13 12 11 11 11 11 11 14 14 13 13 13
9 8 8 7 7 6 5 5 5 5 5 5 5 6 6 7 8 8 9 8 7 8 10 11 11 11 12 12 12 11 12 12 12 10 10 10 10 10 12 13 13 13 13
7 7 7 6 5 5 5 5 5 4 4 4 4 5 6 6 7 7 7 7 7 8 8 7 11 12 11 11 10 10 10 10 11 10 9 9 10 10 11 12 12 13 12
6 5 5 5 5 5 4 4 4 3 3 3 3 3 5 5 6 6 6 6 7 7 7 6 9 11 11 11 10 10 10 9 10 10 9 9 9 10 11 11 11 12 13
5 5 4 4 4 4 4 3 3 3 2 2 1 2 4 5 5 6 6 6 6 6 7 8 10 10 10 11 10 10 10 9 9 10 10 10 10 10 10 11 11 11 12
4 4 4 4 4 3 3 2 2 2 2 2 2 3 4 5 5 6 5 5 5 6 6 7 8 9 10 10 9 9 9 8 8 8 9 9 9 9 9 10 11 10 10
4 4 4 3 3 3 2 2 2 2 2 2 2 3 4 4 5 5 5 5 5 6 6 6 8 9 9 9 8 9 8 8 7 8 8 9 8 8 8 8 9 10 11
4 3 3 3 2 3 2 2 2 2 2 3 4 4 4 5 5 5 5 5 5 6 6 7 8 9 9 8 8 8 8 8 8 8 9 9 8 7 7 7 8 10 11
3 2 2 2 2 2 2 2 2 2 2 3 4 5 5 5 5 5 5 6 6 6 6 7 8 8 8 8 7 7 7 7 7 8 8 8 7 6 6 7 8 10 11
2 2 2 2 2 2 2 2 2 2 2 3 4 4 5 5 5 5 5 6 6 6 6 6 6 7 7 7 7 7 7 7 7 7 7 7 6 6 7 8 9 10 10
2 2 2 2 2 2 2 2 2 2 2 3 3 3 4 5 5 5 5 5 6 6 6 6 6 6 6 6 7 7 7 7 7 7 7 6 7 7 8 9 8 9 8
2 2 2 2 2 2 2 2 2 2 3 3 3 4 4 4 4 4 5 5 5 5 4 4 5 5 5 6 6 7 7 7 7 6 6 6 6 7 8 8 8 8 7
2 1 2 2 1 1 2 2 2 4 4 3 3 3 3 3 4 4 3 4 5 5 4 4 5 3 4 6 6 6 6 6 6 6 6 6 7 7 8 9 8 6 6
2 2 1 1 1 1 1 2 4 4 4 5 4 4 5 4 4 5 5 5 5 4 5 5 4 4 4 4 4 4 4 4 5 6 6 6 6 8 9 6 6 6 6
2 1 1 1 1 1 1 2 4 4 4 4 4 4 5 5 4 4 3 3 3 3 3 3 3 3 3 3 3 4 4 4 5 6 7 7 7 6 6 6 6 7 9
1 1 1 1 1 1 2 4 4 4 4 4 4 4 4 4 4 4 4 3 3 3 3 3 3 3 3 3 3 4 4 4 4 4 4 4 4 5 5 6 7 9 9
1 0 1 1 1 1 3 3 4 4 4 4 4 3 4 4 4 4 4 3 3 3 3 3 3 3 3 3 3 3 3 2 2 2 3 3 3 4 5 8 10 9 9
0 0 0 0 1 1 2 3 3 3 3 3 3 3 3 3 3 3 3 3 2 2 2 2 2 2 2 2 2 2 2 2 2 2 3 3 4 4 7 9 10 8 8
0 -0 0 0 0 1 2 2 2 2 2 2 2 2 1 1 2 2 2 2 2 2 2 2 2 2 2 2 2 1 1 1 2 2 3 4 5 6 9 9 9 8 8
-0 -0 0 0 1 0 1 2 2 2 1 1 1 1 1 1 2 2 2 2 2 2 2 2 2 1 1 1 1 1 1 1 1 2 3 4 6 8 9 9 9 9 8
-0 -0 -0 -0 0 0 0 0 1 1 1 0 0 0 1 1 1 1 1 1 2 2 2 2 1 1 1 1 1 1 1 2 2 2 3 5 7 8 8 9 9 8 8
-0 -0 -0 -0 -0 -0 0 0 0 0 0 0 0 1 1 1 1 1 1 1 1 1 1 1 1 1 0 0 0 1 1 2 2 3 4 5 6 7 8 8 8 8 9
-1 -1 -1 -0 -0 -0 -0 0 0 0 0 0 1 1 1 1 1 1 1 1 1 1 0 0 1 1 0 0 0 0 1 2 2 2 3 5 6 6 7 7 7 8 8

GFSGL_925_temp_048.txt.gz
Temp
13 12 11 11 10 9 9 9 9 9 9 8 8 8 8 8 9 10 10 10 11 10 11 11 12 12 12 13 13 13 13 12 10 11 13 13 13 12 12 15 16 15 15
12 11 10 10 9 9 9 8 9 8 7 7 7 7 7 7 7 8 9 9 10 10 11 12 12 12 12 12 13 13 13 13 12 9 12 13 13 13 12 11 15 15 14
10 10 9 9 8 8 8 7 7 6 5 5 6 6 6 6 6 7 7 9 9 10 10 11 12 12 12 12 11 11 13 12 12 12 11 12 12 12 12 12 14 14 14
9 9 8 7 7 7 6 5 5 5 5 5 5 5 5 5 5 6 7 7 8 8 9 9 9 10 10 12 10 12 12 12 12 12 12 11 11 11 11 11 12 14 13
8 8 7 7 5 5 5 5 5 5 4 4 4 4 4 4 4 5 6 7 6 6 7 8 8 9 9 10 11 11 10 11 11 11 10 10 10 10 10 10 12 13 13
7 7 6 5 5 4 4 4 5 4 4 4 3 3 2 3 3 4 5 5 6 5 6 6 7 8 7 9 9 10 7 9 9 9 10 9 9 10 10 10 11 12 9
6 5 5 5 5 4 4 4 4 4 3 3 3 2 2 2 3 3 5 5 6 6 6 6 6 7 7 7 6 9 9 10 10 10 9 9 10 10 10 10 10 12 12
5 4 4 4 4 4 3 3 3 3 3 2 2 2 2 2 3 4 5 5 5 5 5 5 6 6 6 6 6 7 10 10 10 10 10 9 9 10 10 10 10 11 11
5 4 4 4 3 3 3 3 2 2 2 2 2 2 2 2 3 4 4 5 5 5 4 5 5 6 5 5 7 8 9 9 9 9 9 9 9 9 9 9 9 9 10
4 4 4 3 3 2 2 2 2 2 2 2 2 2 2 3 3 4 5 5 4 4 5 5 6 6 6 6 8 8 8 8 8 8 8 8 8 9 9 9 9 9 10
4 3 3 2 2 2 2 2 2 2 2 2 2 2 2 3 4 4 5 5 4 4 5 5 5 5 6 7 8 8 8 8 8 7 7 8 8 8 9 8 8 9 9
3 3 2 2 2 2 2 2 2 2 2 2 2 2 2 4 5 5 5 6 6 5 5 5 6 6 7 7 7 8 8 8 8 7 7 7 7 8 8 8 8 8 8
3 2 2 2 2 2 2 2 2 2 2 2 3 3 3 3 4 5 5 6 6 6 6 6 6 6 7 7 7 8 8 8 7 6 6 6 7 8 8 8 7 7 7
2 2 2 2 2 2 1 2 2 2 2 3 3 3 3 3 3 3 4 5 5 6 6 6 6 6 6 6 6 7 7 7 6 6 6 7 8 8 7 7 6 7 6
2 2 2 2 1 1 1 1 2 2 4 5 4 3 3 3 3 3 2 4 4 5 5 5 5 5 5 5 6 6 6 6 6 6 7 7 6 6 6 7 7 7 7
2 2 1 1 1 1 1 1 2 4 4 5 5 5 4 4 4 5 6 3 4 5 5 4 4 4 4 4 5 5 6 6 6 6 6 6 6 6 6 6 7 7 7
2 1 1 1 1 1 1 1 2 3 4 4 4 4 4 4 4 4 6 4 4 5 5 4 4 4 4 4 4 4 5 6 6 6 6 7 6 6 6 6 6 6 6
1 1 1 1 1 0 1 3 4 4 4 4 4 4 4 4 3 3 3 4 4 4 3 3 3 3 3 4 4 5 5 5 5 6 6 5 5 5 5 6 6 6 6
1 0 1 1 1 1 2 3 3 3 3 3 3 3 3 3 3 3 2 2 2 2 2 2 2 2 2 3 3 3 3 4 4 4 5 5 5 5 6 6 6 6 6
1 0 0 0 0 1 2 3 3 3 3 2 2 2 2 2 2 2 2 2 2 1 1 1 1 2 2 2 2 2 3 3 3 4 4 5 5 5 5 6 6 6 7
0 -0 0 0 0 1 1 2 2 2 2 1 1 2 2 2 2 2 2 2 1 1 1 1 1 1 2 2 2 2 2 2 2 3 3 3 3 4 4 5 5 7 8
-0 -0 -0 0 0 0 1 1 1 1 1 1 1 1 1 1 1 1 1 1 1 1 1 1 0 1 1 1 1 1 0 1 2 2 3 3 4 4 5 6 8 7 7
-0 -0 -0 0 0 0 0 0 0 0 0 0 1 1 1 1 1 1 1 1 1 1 0 0 0 0 1 1 0 0 0 0 1 2 3 4 4 5 7 8 7 7 7
-1 -0 -0 -0 -0 -0 0 0 0 0 0 1 1 1 1 1 1 1 1 1 0 0 0 0 -0 -0 0 0 0 1 1 1 2 3 4 5 6 8 8 8 7 7 7
-1 -1 -1 -0 -0 -0 -0 -0 -0 0 0 1 1 1 1 1 1 1 1 1 0 0 0 -0 -0 -1 -0 -0 0 1 1 2 3 4 6 8 9 9 8 8 8 8 7
-1 -1 -1 -1 -1 -1 -0 -0 -0 0 0 0 1 0 1 1 1 1 1 0 0 -0 -1 -1 -1 -1 -1 -0 0 1 2 2 3 5 7 8 8 8 8 8 8 7 7

GFSGL_925_temp_051.txt.gz
Temp
12 11 10 10 9 9 9 8 8 7 6 6 6 5 5 6 6 6 6 6 7 8 9 9 9 10 10 10 11 11 10 10 10 11 12 13 13 13 13 12 14 12 12
10 10 9 9 8 7 7 6 6 5 5 5 5 5 5 5 5 5 5 5 6 7 7 8 8 9 10 10 10 10 10 11 8 7 12 12 12 13 12 12 11 12 11
9 9 9 8 7 7 6 5 5 4 4 5 5 4 4 4 5 5 5 5 5 6 7 7 8 8 9 10 10 10 11 9 9 9 11 12 11 12 12 11 11 11 11
9 8 7 7 6 5 4 4 4 4 4 4 4 5 4 4 4 4 4 4 4 5 6 6 7 7 8 8 8 10 10 9 10 9 10 11 11 11 11 11 11 11 11
7 6 6 5 5 4 4 4 4 4 4 4 4 4 4 4 3 4 3 3 4 4 5 5 5 5 6 7 8 9 10 10 9 8 8 9 9 9 10 10 10 11 11
6 5 5 5 4 4 4 4 4 4 3 3 3 3 3 3 3 3 4 3 4 3 3 3 4 5 5 6 7 7 8 7 8 8 7 8 9 10 10 11 10 9 9
6 5 5 4 4 4 4 3 3 3 3 3 3 3 2 2 3 3 3 4 3 4 3 3 4 5 5 6 6 8 7 5 7 7 7 8 9 10 10 10 9 9 10
5 5 4 3 3 3 3 3 3 3 2 2 2 2 2 2 3 3 4 4 4 4 3 4 4 5 5 5 6 6 5 6 7 7 7 9 10 10 9 10 10 10 10
4 3 3 3 3 3 3 2 2 2 2 2 2 2 2 2 2 3 3 4 4 4 4 4 4 4 4 5 5 5 5 6 8 7 7 9 9 9 9 9 9 9 8
3 3 3 3 3 3 2 2 2 2 2 2 2 2 2 3 3 3 3 4 4 4 4 4 4 5 5 6 6 4 3 4 7 9 9 8 8 8 8 8 9 8 8
3 3 3 3 3 2 2 2 2 2 2 2 2 2 2 2 2 3 4 4 4 4 4 4 4 5 6 6 6 4 3 5 7 8 8 9 8 8 8 8 8 9 9
2 3 3 2 2 2 2 2 2 2 2 2 2 2 2 2 2 3 4 5 6 5 4 4 5 5 6 6 6 6 6 7 8 7 7 7 7 7 7 8 8 9 8
2 2 2 2 2 2 2 1 1 1 2 2 3 3 3 3 3 3 3 5 6 6 5 4 5 5 6 6 7 7 7 8 7 6 6 7 7 7 7 8 8 9 9
2 2 2 2 2 1 1 1 1 1 2 4 5 5 4 3 3 3 2 2 4 6 6 6 5 6 6 6 6 6 7 7 7 7 7 7 7 7 7 8 7 8 7
1 2 2 1 1 1 1 1 1 2 4 4 5 4 4 4 4 4 4 3 2 4 5 5 5 5 5 6 6 6 6 6 6 6 6 6 6 6 6 8 7 6 6
1 1 1 1 1 1 1 1 2 4 4 4 4 4 4 4 4 6 6 6 2 4 4 4 4 5 4 4 4 5 5 5 6 6 6 6 5 6 6 6 7 6 6
1 1 1 1 1 1 1 1 3 3 3 3 3 3 3 3 3 4 4 4 4 5 4 4 4 4 4 4 4 4 4 5 6 6 6 5 6 6 6 6 6 6 6
1 1 0 1 1 0 1 2 3 3 3 2 2 3 2 2 2 2 2 2 2 2 3 3 2 3 4 4 4 4 4 4 5 5 5 5 6 6 6 6 6 6 6
1 0 1 1 0 0 1 2 2 2 2 2 2 2 2 1 2 2 1 1 1 1 1 1 1 2 2 3 3 4 4 4 4 5 5 6 6 6 6 6 6 6 6
0 0 0 0 0 1 1 1 1 1 1 1 1 2 2 2 2 1 1 1 1 1 1 1 1 2 2 2 2 3 3 3 4 4 4 5 5 5 5 5 6 6 6
-0 -0 -0 0 0 0 1 1 1 1 1 1 1 2 2 1 1 1 1 0 0 0 0 0 0 0 1 1 1 2 2 3 3 4 4 4 5 5 5 5 5 6 6
-0 -0 -0 -0 0 0 0 -0 0 0 0 1 1 1 1 1 1 1 0 0 -0 -0 -0 -0 -0 0 0 -0 -0 0 1 1 2 3 4 4 4 4 5 5 5 6 6
-1 -1 -0 -0 -0 0 0 -0 -0 0 0 1 1 1 1 1 0 0 -0 -0 -0 -0 -1 -1 -0 -0 -0 -0 0 0 0 0 2 2 3 3 3 5 5 5 5 6 7
-1 -1 -1 -0 -0 -0 -0 -0 -0 0 0 1 0 1 1 1 0 -0 -0 -1 -1 -1 -1 -1 -1 -1 -1 -0 0 1 1 1 2 3 3 4 4 4 4 6 7 7 7
-1 -1 -1 -1 -0 -1 -0 -0 -0 0 0 0 0 1 0 0 0 -0 -0 -1 -1 -2 -1 -1 -1 -1 -1 -0 0 1 2 2 3 4 4 5 5 6 7 7 7 7 7
-1 -1 -1 -1 -1 -1 -1 -0 -0 -0 0 0 0 0 0 0 -0 -0 -1 -1 -1 -2 -2 -2 -1 -1 -1 -0 0 1 3 4 4 5 6 7 7 7 7 7 7 7 6

GFSGL_925_temp_054.txt.gz
Temp
10 10 9 9 8 8 7 7 7 6 5 5 4 4 4 4 4 4 4 4 5 5 5 5 6 7 7 8 8 8 8 8 8 10 11 11 12 12 13 12 12 13 13
9 9 8 8 7 7 6 5 5 5 4 4 4 4 4 4 4 4 4 4 4 4 4 5 5 6 7 7 7 7 8 8 8 7 9 10 11 12 12 12 12 12 12
9 8 8 7 6 6 5 5 4 4 4 4 3 4 4 4 4 4 4 4 4 4 4 4 4 5 6 7 6 6 7 8 8 9 9 9 10 9 11 11 10 11 11
7 7 6 6 5 5 4 4 3 3 3 3 3 4 4 4 3 3 3 3 3 3 4 3 4 4 5 6 6 6 7 7 8 8 8 8 7 8 11 11 10 10 10
7 6 6 5 5 4 3 3 3 3 4 4 3 3 3 3 3 4 3 3 4 3 3 3 4 4 5 6 5 5 5 7 6 6 7 7 6 7 9 10 10 10 9
6 6 5 5 4 3 3 3 3 3 3 3 3 3 3 3 3 4 4 4 4 3 3 3 3 3 4 5 6 6 5 6 5 6 6 7 7 9 10 10 10 9 7
6 5 4 3 3 2 3 3 3 3 3 3 2 2 2 2 3 3 4 4 4 3 3 2 3 3 4 4 4 5 5 6 6 7 7 8 8 10 11 9 9 10 9
4 4 3 2 2 2 3 3 3 3 2 2 2 2 2 2 2 3 4 4 4 3 4 3 4 3 3 4 4 3 4 5 4 5 6 7 9 9 10 11 10 10 9
3 2 2 2 2 3 3 2 2 2 2 2 2 2 2 2 2 3 3 3 3 3 3 4 4 4 4 5 5 4 4 5 5 6 7 8 8 9 9 10 9 8 7
2 2 2 2 2 2 2 2 2 2 2 2 2 2 2 3 2 3 3 3 3 3 3 4 4 4 4 5 5 4 4 5 5 5 6 6 7 8 8 10 9 8 7
3 2 2 2 2 2 2 2 2 2 1 1 2 2 2 3 3 3 3 4 3 3 3 3 4 4 5 5 6 5 5 5 5 5 7 7 8 8 8 8 9 9 8
2 1 1 2 2 2 2 1 1 1 1 2 2 2 4 4 4 4 3 4 4 4 3 4 5 4 5 5 6 5 5 5 4 5 6 7 7 7 8 8 8 8 8
1 1 1 2 2 2 1 1 1 1 1 2 2 4 4 4 4 4 4 4 4 4 5 5 5 5 5 6 6 6 6 5 5 6 6 7 8 8 8 7 7 8 8
1 1 2 2 2 1 1 1 1 1 2 3 4 4 4 4 3 4 5 4 3 4 5 5 5 5 5 5 6 5 5 5 6 6 7 7 7 7 6 7 6 7 7
1 2 2 1 1 1 1 1 1 2 4 3 3 4 3 3 4 5 6 3 3 2 5 5 5 5 5 5 5 6 6 5 5 6 6 6 6 6 6 7 7 6 6
1 1 1 1 1 1 1 1 1 3 3 3 3 3 3 3 3 4 5 3 3 3 4 4 4 5 4 4 5 5 5 5 5 6 6 6 6 5 6 6 6 7 7
1 1 1 0 1 1 1 1 2 2 2 2 2 3 3 2 2 2 3 3 4 4 4 3 4 4 4 4 4 4 4 5 5 5 6 6 5 6 5 5 5 6 6
0 0 0 1 0 0 1 1 2 1 2 1 2 2 2 2 2 2 1 1 1 1 1 2 2 3 4 4 4 4 4 4 4 5 5 5 5 5 5 6 5 5 6
0 -0 0 0 0 0 1 1 1 1 1 1 1 2 1 1 1 1 0 0 0 0 0 1 1 2 2 3 3 4 4 4 4 4 4 5 5 5 5 6 6 6 6
-0 -0 0 0 0 0 0 0 0 0 1 1 1 2 1 1 1 1 0 -0 -0 -0 -0 0 0 0 1 1 2 2 4 4 4 4 4 4 5 5 5 5 6 6 6
-0 -1 -0 -0 -0 0 0 0 -0 0 0 1 1 1 1 0 0 -0 -0 -0 -1 -1 -1 -1 -0 -0 -0 0 1 1 2 3 4 4 4 4 5 5 5 6 6 6 5
-1 -1 -1 -0 -0 -0 0 -0 -0 0 0 1 1 1 1 0 -0 -0 -1 -1 -2 -1 -1 -1 -1 -1 -1 -1 -0 0 1 2 3 3 4 4 5 5 5 5 5 5 5
-1 -1 -1 -1 -0 -0 -0 -0 -0 0 0 0 1 1 -0 -0 -0 -1 -1 -2 -2 -2 -2 -1 -1 -1 -0 -0 -0 0 0 1 2 3 4 4 4 5 5 5 5 5 5
-1 -1 -1 -1 -0 -0 -1 -0 -0 0 0 0 0 0 -0 -0 -1 -1 -1 -2 -2 -2 -2 -2 -1 -1 -1 -0 -0 1 1 1 2 2 3 4 4 4 4 5 5 5 6
-1 -1 -1 -1 -1 -1 -1 -0 -0 -0 0 0 0 -0 -0 -1 -1 -1 -1 -2 -2 -2 -2 -2 -2 -1 -1 -0 0 1 2 2 2 3 3 3 4 5 5 5 5 5 6
-1 -1 -1 -1 -1 -1 -1 -1 -0 -0 -0 0 -0 -1 -1 -1 -1 -1 -1 -2 -2 -2 -2 -2 -2 -2 -1 -0 1 2 3 3 4 4 4 4 4 5 5 6 7 7 7

GFSGL_925_temp_057.txt.gz
Temp
10 9 9 8 7 6 6 6 5 5 5 4 4 4 3 3 3 3 3 3 3 3 4 4 4 4 4 5 5 6 6 7 6 8 9 9 10 11 11 12 12 12 13
9 8 7 7 7 6 6 5 5 4 4 3 3 3 3 3 3 3 3 3 3 3 3 3 3 4 4 4 5 5 5 6 6 6 7 8 10 11 11 11 12 12 12
8 7 7 7 6 5 5 5 4 3 3 3 2 2 3 3 3 4 4 3 3 3 3 3 3 4 4 3 4 4 5 6 6 5 6 7 9 10 10 10 10 11 12
7 6 6 6 5 5 4 3 3 2 2 2 2 3 4 3 3 4 3 3 3 3 3 3 3 3 3 3 3 4 5 5 5 4 5 6 8 8 8 9 8 10 11
6 6 5 5 4 4 3 2 2 2 2 2 3 3 3 3 3 3 3 3 3 3 3 3 3 3 4 3 3 3 4 5 4 4 5 6 6 6 6 8 8 10 9
6 5 4 4 3 3 2 2 2 3 3 3 3 3 3 3 3 3 3 3 3 3 3 3 3 3 3 5 5 5 5 4 4 5 5 5 6 7 7 7 7 7 6
5 4 4 3 2 2 2 2 2 3 3 3 2 2 2 2 2 3 4 3 3 3 3 3 3 3 3 3 4 4 5 6 5 3 5 5 6 9 8 6 8 8 8
4 3 3 2 2 1 1 1 2 2 2 2 2 2 2 2 3 3 4 4 3 3 3 3 3 3 3 3 3 3 3 3 4 4 4 5 7 9 9 7 10 10 9
3 3 2 2 1 1 1 2 2 2 2 2 2 2 2 2 2 4 4 4 3 3 3 3 2 3 3 4 4 3 3 3 4 4 3 4 7 8 9 7 8 8 6
2 2 2 1 1 1 1 2 2 2 1 1 1 2 2 2 2 4 4 4 4 3 3 3 3 4 3 4 4 4 4 4 4 5 5 5 6 7 7 8 9 7 6
2 2 1 1 0 1 2 2 1 1 1 1 1 2 2 2 3 4 5 5 4 3 3 2 3 4 4 5 5 5 4 3 4 5 5 6 6 7 7 8 9 10 8
2 1 1 0 1 2 2 1 1 1 1 1 2 3 4 4 4 4 4 5 5 4 3 3 4 4 4 5 5 5 5 5 4 4 4 5 5 6 7 8 8 8 9
1 1 1 2 2 2 1 1 1 1 1 2 3 3 3 3 3 3 4 6 6 5 3 4 4 4 5 5 5 6 6 5 4 3 4 4 6 7 7 8 8 8 8
1 1 1 2 2 1 1 1 1 1 2 3 3 3 3 3 3 4 4 4 5 4 4 4 4 5 5 5 5 4 5 4 4 4 4 5 6 6 6 7 6 7 7
0 -0 1 1 1 1 1 1 1 1 3 3 3 3 3 3 3 4 4 3 3 4 4 4 4 4 4 4 4 2 4 4 4 5 6 6 6 6 6 6 6 5 6
-1 0 1 0 0 1 1 1 1 1 2 2 2 3 2 2 2 2 3 4 4 4 4 4 3 4 4 4 4 4 4 5 5 6 6 6 6 6 6 5 6 5 6
-0 0 0 0 0 1 1 1 1 1 1 1 2 2 2 2 1 1 1 1 2 2 2 2 3 3 4 4 4 4 4 5 5 5 6 5 5 5 5 5 5 5 6
0 0 -0 0 0 0 0 1 1 1 1 1 1 2 1 2 1 1 0 0 0 0 0 1 2 2 3 3 4 3 4 4 4 4 5 5 5 5 5 5 5 5 6
0 -1 0 0 -0 0 0 0 1 1 1 1 1 1 1 1 1 1 0 -1 -0 -0 -0 -0 -0 0 1 2 3 3 4 5 4 3 4 4 5 5 5 5 5 5 6
-0 -1 0 -0 -0 -0 0 0 0 0 0 1 1 1 1 0 -0 -1 -1 -1 -1 -1 -1 -1 -1 -0 -0 0 1 2 3 4 4 3 3 4 5 5 5 6 6 6 6
-1 -1 -0 -1 -0 -0 0 0 0 0 0 0 0 1 1 -0 -1 -1 -1 -2 -2 -2 -2 -1 -1 -1 -1 -1 -0 1 1 3 4 4 4 4 3 4 5 5 6 6 6
-1 -1 -1 -1 -1 -0 -0 -0 -0 0 0 0 0 0 0 -1 -1 -1 -2 -2 -2 -2 -2 -2 -2 -1 -1 -1 -1 -0 1 1 3 4 4 3 3 4 5 5 6 6 6
-1 -1 -1 -1 -1 -0 -0 -0 -0 -0 0 0 -0 -0 -1 -1 -1 -1 -2 -2 -2 -2 -2 -2 -2 -2 -2 -1 -1 -0 0 1 2 3 4 4 4 4 5 5 5 5 5
-2 -1 -1 -1 -1 -1 -1 -1 -0 -0 0 0 -0 -1 -1 -1 -1 -1 -2 -2 -2 -2 -2 -2 -2 -2 -2 -1 -1 0 1 1 2 3 3 4 4 4 5 5 5 5 5
-2 -1 -1 -1 -1 -1 -1 -1 -1 -0 -0 -0 -1 -1 -1 -1 -1 -2 -2 -2 -2 -2 -2 -2 -2 -2 -1 -1 0 1 1 1 2 2 3 4 5 5 5 5 5 4 5
-2 -2 -1 -1 -1 -1 -1 -1 -1 -1 -1 -0 -0 -0 -1 -1 -1 -2 -2 -3 -3 -3 -2 -2 -2 -2 -1 0 2 2 2 2 3 3 4 4 4 4 5 5 5 4 5

GFSGL_925_temp_060.txt.gz
Temp
10 10 9 8 7 6 6 6 5 5 5 4 3 3 2 2 2 2 3 2 2 2 3 3 3 3 3 3 4 4 4 4 4 5 6 7 8 9 9 10 11 11 11
9 8 7 6 6 6 5 5 5 4 4 3 2 2 2 2 2 2 2 3 3 3 3 3 3 3 3 3 3 3 3 3 4 4 5 6 7 8 9 9 10 11 11
7 7 6 6 6 5 5 4 4 3 3 2 2 2 2 2 2 2 3 3 3 4 3 3 3 3 3 3 3 3 3 3 3 3 4 5 6 6 7 7 9 10 11
7 6 6 5 5 4 4 3 3 2 2 2 2 2 2 2 3 3 3 3 3 3 3 3 3 3 3 3 3 3 3 2 3 3 4 4 5 6 6 6 7 9 10
6 5 5 4 4 3 3 3 2 2 1 2 2 3 3 3 3 3 3 3 2 2 2 3 3 3 3 3 3 3 3 2 2 3 3 3 4 5 5 6 6 8 10
5 4 4 4 3 3 2 2 1 1 1 2 3 2 2 2 2 3 4 4 4 4 3 3 3 3 4 5 5 5 4 2 2 3 3 3 4 5 5 5 6 7 7
4 4 3 3 2 2 1 1 1 1 1 2 2 2 2 2 2 3 4 4 4 4 4 3 3 3 3 3 3 4 5 6 5 4 3 3 4 4 5 5 6 6 7
3 3 3 2 1 1 0 0 1 1 2 2 2 1 1 2 2 3 4 4 4 4 4 4 3 3 3 2 3 3 3 3 4 4 4 2 3 5 5 6 7 8 6
3 2 2 1 1 0 -0 1 1 1 2 1 1 2 2 2 2 4 4 4 4 4 4 4 3 3 3 3 3 2 3 3 4 4 5 4 4 5 5 5 6 5 5
2 2 2 1 0 -0 1 0 2 2 1 1 1 1 2 2 3 3 4 4 4 4 4 4 3 3 3 3 4 4 3 3 4 4 3 5 4 4 6 5 6 6 6
2 2 1 1 1 1 1 2 1 1 1 1 1 2 2 2 3 4 4 4 5 5 4 3 3 3 4 5 5 4 4 4 4 4 3 4 4 4 6 6 7 6 8
2 1 1 1 1 1 2 1 1 1 1 1 1 2 3 3 3 3 4 5 5 6 5 3 3 3 4 5 5 5 5 5 4 3 3 4 4 5 6 6 7 6 9
1 1 0 0 0 1 1 1 1 1 1 1 2 3 3 2 2 2 3 4 4 5 4 3 3 3 4 5 5 4 5 4 4 3 3 4 5 5 5 6 6 7 8
0 -0 -0 0 1 1 1 1 1 1 1 2 2 2 2 2 2 2 3 3 4 4 4 4 4 4 4 4 4 4 5 5 4 4 4 4 5 5 5 6 5 6 7
-0 -1 0 1 1 0 1 1 1 1 2 2 2 2 2 2 2 2 2 3 4 4 4 4 4 4 4 4 3 2 3 3 4 3 3 3 4 5 6 6 6 6 6
-1 0 0 0 0 0 0 1 0 1 1 1 2 2 2 2 2 2 1 0 2 3 3 3 3 3 3 3 3 2 1 3 4 3 3 4 4 5 5 5 6 5 5
-0 0 0 -0 -0 0 0 0 1 1 1 1 1 1 2 2 2 1 0 -0 0 1 1 1 2 2 2 3 3 3 4 3 4 5 5 5 5 6 5 5 4 4 5
0 -0 -1 -1 -0 -0 0 0 0 1 1 1 1 1 1 1 1 0 -0 -1 -1 -1 -1 -0 0 1 2 3 3 3 4 4 4 5 5 5 5 5 5 5 5 5 5
-0 -1 -1 -0 -0 -0 -0 0 0 0 0 0 1 0 0 0 0 -0 -1 -1 -1 -1 -1 -1 -1 -0 -0 1 2 2 3 4 4 4 4 4 5 5 5 6 5 5 6
-0 -1 -0 -1 -1 -1 -0 0 0 -0 0 0 0 -0 -0 -1 -1 -1 -2 -2 -2 -2 -2 -1 -1 -1 -1 -0 0 1 2 3 4 3 3 4 4 5 5 5 5 5 6
-0 -1 -1 -1 -1 -1 -0 -0 -0 -0 0 0 0 -0 1 -1 -1 -2 -2 -2 -2 -2 -2 -2 -2 -2 -1 -1 -1 0 1 2 4 4 3 3 4 4 5 5 6 6 5
-1 -2 -1 -1 -1 -1 -0 -0 -0 -0 -0 0 -0 -1 -0 -1 -1 -1 -2 -2 -2 -2 -2 -2 -2 -2 -2 -2 -1 -1 0 1 2 4 4 4 4 4 4 5 5 6 5
-2 -2 -2 -1 -1 -1 -1 -1 -1 -0 -0 -0 -1 -1 -1 -1 -1 -2 -2 -2 -2 -2 -2 -2 -2 -2 -2 -2 -1 -1 -0 0 2 3 4 4 3 3 4 4 5 5 5
-2 -2 -2 -1 -1 -1 -1 -1 -1 -0 -1 -0 -1 -1 -1 -1 -1 -2 -3 -3 -3 -3 -2 -2 -2 -2 -2 -2 -1 -1 -0 0 1 2 3 3 3 3 3 4 5 5 5
-2 -2 -2 -1 -2 -1 -1 -1 -1 -1 -1 -0 -1 -1 -1 -2 -2 -3 -3 -3 -3 -3 -3 -2 -2 -2 -2 -1 -0 0 0 1 1 2 3 4 4 4 4 4 5 5 5
-2 -2 -2 -1 -2 -2 -2 -2 -2 -1 -1 -1 -1 -1 -2 -2 -3 -3 -3 -3 -3 -3 -3 -2 -2 -2 -1 0 2 2 1 1 1 2 3 3 4 4 4 4 5 5 5

GFSGL_925_temp_063.txt.gz
Temp
10 10 9 9 7 6 5 5 5 4 4 3 3 3 3 3 3 3 3 3 3 3 3 3 3 3 4 4 4 4 4 5 6 5 6 6 6 6 8 9 9 9 10
9 8 8 7 6 5 4 4 4 3 3 3 2 2 2 2 3 3 3 3 3 3 3 4 3 4 3 3 3 4 4 4 4 5 5 5 6 6 7 7 8 9 9
7 7 6 6 5 4 4 3 3 3 3 2 2 2 2 2 3 3 3 3 3 4 4 4 4 4 4 3 3 3 3 3 3 4 4 4 4 5 6 6 7 7 8
7 6 6 5 4 3 3 3 2 2 2 2 2 2 2 2 3 3 3 3 3 3 3 3 3 4 4 4 4 3 3 4 4 4 4 4 4 5 5 6 7 7 7
6 5 5 4 3 3 2 2 2 1 1 2 2 2 3 3 3 3 3 3 3 3 3 3 3 3 3 4 4 4 4 4 3 3 3 4 4 5 5 6 6 7 7
5 4 4 3 2 2 2 1 1 1 2 2 2 2 3 2 3 3 4 4 4 4 4 4 4 4 4 4 4 5 2 4 3 3 3 4 5 5 5 5 6 7 8
4 3 3 2 1 1 1 1 1 1 1 1 2 2 2 2 2 3 4 4 4 4 4 4 4 4 4 4 3 4 5 5 4 2 2 3 3 5 5 5 6 6 7
3 2 2 1 1 1 1 1 1 2 2 2 2 2 1 2 2 3 4 5 4 4 4 4 4 4 4 4 3 3 3 4 4 4 4 3 3 3 4 5 5 5 6
2 2 1 1 1 1 1 1 1 1 2 2 1 1 1 2 2 3 4 4 4 4 4 4 4 4 4 4 4 2 3 3 3 4 4 4 4 4 4 4 5 5 5
1 1 1 0 0 0 0 1 1 2 1 1 1 1 1 2 2 3 4 4 4 4 5 5 5 5 4 4 4 3 3 4 4 4 4 5 5 5 5 5 5 5 5
2 1 0 -0 -0 -0 1 1 2 1 1 1 1 1 2 2 3 3 4 4 4 5 5 5 4 4 4 4 4 4 4 4 4 4 4 4 4 5 5 5 5 5 5
1 0 -0 -0 -0 0 1 1 1 1 1 1 1 2 2 2 3 3 3 4 4 4 4 3 3 3 4 4 5 5 5 5 4 4 4 3 3 4 4 5 5 5 5
0 -0 -1 -1 1 1 1 1 0 1 1 1 1 2 2 2 2 2 2 2 3 3 4 4 3 3 4 5 4 5 4 4 5 3 3 4 4 3 4 5 5 5 5
-0 -1 -1 1 1 1 1 0 0 1 1 1 2 2 2 1 2 2 2 1 1 3 4 4 4 4 5 4 4 4 4 4 4 4 4 4 4 4 5 5 5 5 6
-1 -1 0 1 1 0 0 0 0 0 1 2 2 2 1 1 2 2 2 1 1 2 3 2 3 4 4 4 3 2 2 3 4 4 4 4 4 4 5 5 5 6 7
-1 -0 0 0 -0 -0 0 0 0 0 1 1 1 2 1 2 2 2 2 1 0 0 2 2 2 3 3 3 3 3 2 3 4 4 4 4 4 4 4 5 5 6 7
-1 -1 -0 -1 -1 -0 -0 0 0 0 1 0 1 2 2 2 1 1 1 -1 -1 -1 -1 -0 1 2 2 3 2 3 2 2 3 3 4 4 4 5 5 5 5 5 6
-1 -1 -1 -1 -1 -1 -0 -0 0 0 0 1 0 1 1 1 1 0 -1 -1 -1 -1 -1 -1 -1 -0 0 1 3 3 2 2 3 4 4 4 5 5 5 5 5 6 6
-0 -1 -0 -0 -1 -1 -0 -0 -0 0 0 0 0 -0 0 0 -0 -0 -1 -2 -2 -1 -2 -1 -1 -1 -0 0 1 2 3 3 3 4 4 5 5 5 6 6 6 5 5
-0 -1 -1 -1 -1 -1 -1 -0 -0 -0 0 -0 -0 -0 0 0 -0 -1 -2 -2 -2 -2 -2 -2 -2 -1 -1 -1 -0 1 2 3 3 3 4 4 5 6 6 6 6 5 6
-1 -2 -1 -1 -1 -1 -1 -0 -0 -0 -0 -0 0 -0 1 -0 -1 -1 -2 -2 -2 -2 -2 -2 -2 -2 -2 -1 -1 -0 1 1 3 4 3 3 4 4 5 6 6 6 6
-1 -2 -2 -1 -1 -1 -1 -1 -1 -1 -0 -0 -0 -0 -0 -1 -1 -2 -2 -2 -2 -3 -2 -2 -2 -2 -2 -2 -1 -1 -0 1 2 3 4 3 4 5 5 5 6 6 6
-2 -2 -2 -1 -2 -1 -1 -1 -1 -1 -1 -0 -1 -0 -1 -1 -2 -2 -3 -3 -3 -3 -3 -2 -2 -2 -2 -2 -2 -1 -1 -0 1 2 4 4 4 4 4 5 5 5 5
-2 -2 -2 -2 -2 -2 -2 -1 -1 -1 -1 -1 -1 -1 -2 -2 -2 -3 -3 -3 -3 -3 -3 -3 -2 -3 -3 -2 -2 -2 -1 -0 0 2 3 4 3 3 4 4 5 5 6
-2 -2 -2 -2 -1 -2 -2 -2 -2 -1 -1 -1 -1 -2 -2 -2 -3 -3 -3 -3 -3 -3 -2 -2 -2 -2 -2 -1 -1 -1 -0 0 0 1 2 3 3 3 3 4 5 5 5
-2 -2 -2 -2 -2 -1 -2 -2 -2 -2 -2 -2 -2 -2 -2 -3 -3 -3 -3 -3 -3 -2 -2 -2 -2 -2 -1 1 1 1 -0 -0 0 1 2 3 3 3 4 4 4 5 5

GFSGL_925_temp_069.txt.gz
Temp
14 13 13 13 12 12 11 11 11 10 10 10 9 9 9 8 8 8 8 8 7 7 7 7 6 6 5 5 5 5 5 5 5 5 5 6 7 7 8 9 9 9 9
13 12 12 12 11 11 11 11 10 10 9 9 9 8 8 8 8 7 7 7 7 7 6 6 6 5 5 5 5 5 5 5 5 5 5 5 5 6 7 8 9 9 10
12 12 11 11 11 10 10 10 9 9 8 8 8 8 7 7 7 7 7 6 6 6 6 5 5 5 5 5 5 5 5 5 5 5 5 5 5 5 5 6 7 8 9
11 11 10 10 10 9 9 8 8 8 8 7 7 7 7 7 6 6 5 5 5 5 5 5 5 5 5 5 5 5 5 5 4 5 4 5 5 5 5 5 6 7 8
11 10 10 10 9 8 8 7 7 7 7 7 6 6 6 5 5 5 5 4 4 4 4 4 4 4 5 5 5 5 5 4 5 5 5 5 5 5 5 6 6 7 8
11 10 10 9 8 8 7 7 7 6 6 6 6 5 4 3 4 4 4 4 4 4 4 5 4 5 5 6 6 6 6 4 3 5 5 5 6 6 6 6 6 7 8
10 9 9 8 8 7 7 6 6 6 6 6 5 4 4 3 4 4 4 4 4 4 4 5 5 5 6 6 6 6 6 6 6 4 4 4 5 7 7 6 6 7 7
9 9 8 8 7 6 6 6 5 5 5 4 3 3 3 3 3 4 4 4 4 4 4 5 5 5 5 5 4 4 4 4 4 5 5 3 3 4 5 5 6 6 6
9 8 7 7 6 6 5 5 5 5 3 3 3 3 2 2 2 3 4 3 4 4 4 4 4 3 4 5 5 6 5 5 4 5 5 5 4 3 3 2 4 4 5
8 7 6 6 5 5 5 5 5 3 3 2 2 2 2 2 2 3 3 3 3 3 3 3 3 3 4 6 6 5 6 5 4 4 4 5 5 4 4 4 4 5 6
7 6 5 5 5 5 5 5 4 3 2 2 2 2 2 2 2 3 3 4 3 3 3 3 2 2 4 6 5 5 4 4 4 4 4 5 6 5 4 4 4 5 6
6 5 5 6 5 5 5 4 3 3 2 2 1 1 1 2 2 2 3 4 4 3 2 3 2 2 4 5 5 5 5 5 5 5 5 6 6 6 6 6 5 5 5
6 5 6 5 5 5 4 2 2 2 1 1 1 1 2 2 1 2 3 3 3 3 3 2 3 3 4 5 6 5 6 6 5 6 6 6 6 6 6 5 5 5 5
5 5 5 5 5 4 2 2 1 1 1 1 1 2 1 1 2 2 3 2 1 1 2 0 1 3 4 5 5 5 4 4 4 5 5 5 5 5 4 4 4 4 5
5 5 5 5 4 2 1 2 0 0 1 1 1 1 1 2 2 2 2 1 1 1 1 -0 0 3 4 4 5 5 4 2 3 4 5 5 4 4 4 4 4 4 5
4 4 4 4 2 1 1 1 1 0 0 1 1 2 2 2 3 2 1 1 1 1 0 -1 -0 0 2 3 4 4 3 2 2 3 5 5 4 3 4 5 5 5 5
4 4 3 2 1 1 1 0 -0 -0 0 0 1 2 2 2 2 2 1 1 1 0 -0 -1 -1 -1 -0 1 2 3 2 2 3 4 5 5 5 5 5 4 4 4 4
3 3 3 1 1 1 0 -0 -0 -0 0 0 1 1 2 1 1 1 1 -0 0 0 -0 -1 -1 -1 -1 -0 0 1 2 2 3 4 6 5 5 5 5 4 4 6 7
3 3 2 1 0 0 0 -0 -0 -0 -0 -0 0 0 1 0 1 1 -0 -1 -1 -1 -1 -1 -1 -1 -1 -1 -0 0 1 2 3 5 4 5 5 6 7 6 6 7 7
3 1 1 -0 -0 0 0 -1 -1 -1 -0 -0 -0 -0 -0 -0 -0 -0 -1 -1 -1 -1 -1 -2 -2 -2 -2 -1 -1 -0 0 2 3 5 6 6 7 8 8 7 7 8 7
1 1 1 -1 -0 -0 -0 -1 -1 -1 -1 -1 -0 -0 -0 0 -1 -1 -1 -1 -2 -2 -2 -2 -2 -2 -2 -2 -1 -1 -0 1 2 4 6 7 7 7 8 8 7 7 8
2 2 0 -1 -1 -1 -1 -1 -1 -1 -1 -1 -1 -1 -0 -1 -1 -2 -2 -2 -2 -2 -2 -2 -2 -2 -2 -2 -2 -1 -1 0 2 3 4 6 7 7 7 7 7 7 8
1 1 -1 -1 -1 -1 -1 -1 -1 -1 -1 -1 -1 -0 -1 -1 -1 -2 -2 -2 -2 -2 -2 -2 -2 -2 -2 -2 -2 -2 -1 -0 1 2 3 5 6 7 7 7 6 7 7
1 0 -1 -1 -1 -1 -2 -2 -1 -1 -1 -0 -1 -1 -1 -1 -2 -2 -2 -2 -2 -2 -2 -2 -2 -2 -2 -2 -2 -2 -2 -1 0 2 3 5 6 6 6 6 7 7 7
1 -0 -0 -1 -1 -2 -2 -2 -2 -1 -1 -1 -1 -2 -2 -2 -2 -2 -2 -2 -2 -2 -2 -2 -2 -2 -2 -2 -2 -2 -2 -2 -1 1 2 4 5 6 6 6 7 7 6
0 0 -0 -1 -1 -2 -2 -2 -2 -2 -2 -1 -2 -2 -2 -2 -2 -2 -2 -2 -2 -2 -2 -2 -2 -1 -1 -1 -1 -2 -2 -2 -1 1 1 3 4 5 6 6 6 7 7

GFSGL_925_temp_072.txt.gz
Temp
14 14 13 13 13 12 12 11 11 11 10 10 9 9 9 8 8 8 8 8 7 7 7 7 7 7 6 6 6 5 5 5 5 5 5 5 5 5 6 6 6 7 8
13 12 12 12 12 11 11 11 10 10 9 9 8 8 8 8 8 7 7 7 7 7 6 6 6 6 6 6 5 5 4 4 4 4 4 4 5 5 5 6 6 6 6
13 12 11 11 11 10 10 9 9 8 8 8 8 7 7 7 7 7 6 6 6 6 5 5 5 5 5 5 5 5 5 5 5 4 5 5 5 5 5 5 5 5 6
12 11 11 11 10 9 9 8 8 7 7 7 7 7 7 6 6 5 4 5 5 5 5 5 5 5 5 5 5 5 5 5 5 5 5 5 5 5 5 4 4 5 5
11 11 11 10 9 9 8 8 7 7 7 6 6 6 6 6 4 4 4 4 4 4 4 4 4 4 5 5 5 4 3 4 4 4 5 4 4 5 4 4 4 4 5
11 10 10 9 9 8 8 7 7 6 6 6 6 6 4 4 4 4 4 4 4 3 3 4 3 4 4 5 6 6 6 6 3 3 3 4 4 4 5 4 4 4 4
10 9 9 9 8 7 7 6 6 6 5 5 4 3 3 3 3 4 4 4 3 3 3 3 4 4 4 4 4 5 5 5 6 6 4 3 3 4 5 4 5 5 5
9 9 9 8 7 6 6 6 5 5 5 4 3 3 2 2 3 3 4 3 3 3 3 3 4 3 4 4 4 4 4 4 4 5 5 5 3 3 3 4 5 5 5
9 8 7 7 6 6 5 5 5 5 4 3 3 2 2 2 2 3 3 3 3 3 3 3 3 3 3 4 4 3 5 5 5 6 5 5 4 4 4 4 4 4 4
8 7 7 6 6 5 5 5 5 4 4 3 2 2 2 1 2 2 3 3 3 2 2 2 2 3 4 4 3 4 5 5 5 5 5 5 5 5 5 4 3 3 4
7 7 6 6 6 6 5 5 4 3 3 2 2 2 2 1 2 2 2 3 2 2 2 2 2 3 3 4 3 5 5 5 5 4 4 4 5 5 5 5 3 3 3
7 6 6 6 5 5 5 4 2 2 2 1 1 1 1 1 1 2 3 3 4 3 2 1 2 3 3 4 4 5 5 5 4 4 4 4 4 4 5 5 4 3 4
6 6 5 5 5 5 3 2 1 1 1 1 1 1 1 1 1 1 2 2 3 2 2 2 2 1 1 3 4 5 5 5 4 5 5 5 5 6 5 5 5 5 4
6 5 5 5 5 4 2 1 1 0 1 0 1 1 1 1 2 2 2 1 1 1 1 0 1 0 1 3 3 4 5 4 3 3 4 5 5 5 5 5 5 5 5
5 5 4 4 4 2 1 1 1 0 0 1 1 1 1 1 1 3 2 2 2 1 1 0 -0 -0 0 1 2 3 3 3 2 2 3 4 5 5 4 5 4 4 4
4 4 4 3 2 1 1 1 1 0 0 0 1 1 1 2 2 2 2 1 1 1 0 -0 -1 -1 -0 0 1 2 3 2 2 3 3 5 5 4 4 3 4 4 4
4 3 3 3 2 1 0 0 0 -0 -0 -0 0 1 1 2 1 1 2 1 0 0 -1 -1 -1 -1 -1 -1 -0 0 1 2 2 3 4 5 4 4 5 4 4 4 5
3 3 3 1 1 0 -0 -0 -0 -1 -0 -1 -1 0 1 1 1 1 0 -0 -1 -1 -1 -1 -1 -1 -1 -1 -1 -0 0 1 2 3 4 5 5 5 4 3 3 3 3
3 2 1 1 0 0 -0 -0 -1 -1 -1 -1 -1 -0 -0 0 0 0 -0 -1 -1 -1 -1 -1 -1 -1 -1 -1 -1 -1 -0 0 1 3 4 5 5 5 5 5 6 6 5
2 2 1 1 -0 -1 -1 -1 -1 -1 -1 -1 -1 -1 -1 -1 -1 -1 -1 -2 -1 -2 -2 -2 -2 -2 -1 -2 -1 -1 -1 0 1 2 4 5 6 7 7 7 7 6 6
2 2 1 0 -0 -1 -1 -1 -2 -1 -1 -1 -1 -1 -0 -1 -1 -1 -1 -1 -2 -2 -2 -2 -2 -2 -2 -2 -2 -1 -1 -0 0 1 4 5 7 7 7 7 7 7 7
1 1 0 -1 -1 -1 -1 -1 -2 -1 -1 -1 -1 -1 -1 -1 -1 -1 -2 -2 -2 -2 -2 -2 -2 -2 -2 -2 -2 -2 -1 -1 -0 1 3 5 7 7 7 7 7 7 7
1 1 -0 -0 -1 -1 -2 -2 -2 -2 -1 -1 -1 -2 -2 -2 -2 -2 -2 -2 -2 -2 -2 -2 -2 -2 -2 -2 -2 -2 -2 -1 -0 1 3 5 6 6 6 6 7 7 7
0 0 -0 -0 -1 -1 -2 -2 -2 -2 -1 -2 -2 -2 -2 -2 -2 -2 -2 -2 -2 -2 -2 -2 -2 -2 -2 -2 -2 -2 -2 -1 -0 1 3 4 5 6 7 6 7 7 7
0 -0 -0 -1 -1 -2 -2 -2 -2 -2 -2 -2 -2 -2 -2 -2 -2 -2 -2 -2 -2 -2 -2 -2 -2 -2 -3 -3 -2 -2 -2 -2 -0 1 2 4 5 6 6 7 7 7 7
-0 -1 -1 -1 -2 -2 -2 -2 -2 -2 -2 -2 -2 -2 -2 -2 -2 -2 -2 -2 -2 -2 -2 -2 -2 -2 -1 -2 -2 -2 -2 -2 -1 1 2 3 4 6 6 7 6 6 7

GFSGL_925_temp_075.txt.gz
Temp
14 14 13 13 12 12 11 11 10 10 10 9 9 8 8 8 8 7 7 7 7 7 7 7 6 6 6 7 6 6 6 6 5 5 5 5 5 5 5 5 5 5 6
14 13 12 11 11 11 10 10 9 9 9 8 8 7 7 7 7 7 6 6 6 5 6 6 6 5 6 6 6 5 5 5 4 4 4 4 4 5 5 5 5 5 5
12 12 11 11 10 10 9 9 9 8 8 7 7 7 6 6 6 6 5 5 5 5 5 5 5 5 5 5 5 5 5 4 4 3 4 4 4 4 4 4 4 5 5
11 11 11 10 9 9 9 8 8 7 7 6 6 6 6 5 5 4 4 4 4 4 4 4 4 4 4 4 4 4 4 4 4 4 4 4 4 4 4 4 4 4 4
11 10 10 9 9 9 8 8 7 6 6 6 5 5 4 4 3 4 4 4 4 4 3 3 3 4 4 4 4 4 4 3 3 3 3 3 3 4 4 4 4 4 4
9 9 9 9 9 8 7 7 6 6 5 5 5 4 3 3 3 4 4 4 4 3 3 3 3 3 3 4 5 5 5 5 5 4 3 3 3 3 4 4 4 3 3
9 9 9 8 7 7 6 6 5 5 5 5 4 3 3 3 3 3 4 4 3 3 3 3 3 3 3 3 4 4 5 4 5 5 5 4 3 3 3 4 4 3 4
8 8 8 7 7 6 6 5 5 5 5 4 4 3 3 2 3 3 4 3 3 3 2 2 2 2 3 3 3 3 4 4 3 3 4 4 4 4 3 4 4 4 4
8 8 7 7 6 6 5 5 5 5 4 3 3 3 2 2 2 3 3 2 2 2 2 2 2 2 3 4 4 4 3 3 3 4 5 5 5 5 4 3 3 4 4
8 7 7 6 6 5 5 5 4 3 3 2 2 2 2 2 1 2 3 2 1 2 2 2 2 3 3 4 4 4 3 3 3 4 5 4 4 6 5 4 4 4 4
7 7 6 6 5 5 5 4 3 2 2 1 1 1 1 1 1 2 3 3 2 2 1 2 2 2 3 3 4 3 3 3 4 5 4 4 4 3 4 5 4 4 4
7 6 6 5 5 5 4 3 2 2 1 1 1 1 1 1 1 1 3 3 3 2 1 1 2 2 2 2 2 3 4 4 5 4 4 4 4 4 5 5 5 4 3
6 6 5 5 4 4 3 2 2 1 0 0 0 0 1 1 1 1 2 2 2 2 2 2 2 1 1 0 3 4 4 4 3 3 3 3 4 5 5 5 5 4 4
6 5 4 4 4 3 2 2 1 0 0 0 1 1 1 1 1 1 1 1 1 1 1 1 0 1 0 1 1 2 3 3 3 3 3 3 3 4 5 5 4 3 3
5 4 4 3 3 2 1 1 1 0 0 0 0 0 1 1 1 2 2 2 1 1 1 0 0 0 -0 -0 0 0 1 2 2 2 2 3 3 4 4 5 4 3 3
4 4 3 3 2 1 0 -0 0 0 1 0 0 1 1 1 1 2 1 1 1 1 -0 -1 -1 -0 -1 -1 -0 -0 -0 1 1 2 3 3 4 4 4 4 4 4 4
3 3 3 1 1 0 -0 -1 -0 -0 -0 -0 -0 0 0 1 1 1 1 1 -0 -0 -1 -1 -1 -1 -1 -1 -1 -1 0 0 1 1 2 3 4 4 4 4 3 3 4
3 2 2 1 1 0 -0 -1 -1 -1 -1 -1 -1 -0 0 0 1 0 0 -1 -1 -1 -2 -2 -2 -1 -1 -1 -1 -1 -1 -0 -0 1 2 4 4 4 4 2 2 4 4
2 2 2 1 1 -0 -1 -1 -1 -2 -1 -1 -1 -1 -1 -1 -0 -0 -1 -2 -1 -1 -2 -2 -2 -2 -2 -1 -1 -1 -1 -1 -0 1 3 4 4 4 4 5 4 3 4
2 1 1 0 -0 -1 -1 -1 -1 -2 -1 -1 -1 -1 -1 -1 -1 -1 -2 -2 -1 -1 -2 -2 -2 -2 -2 -2 -1 -1 -1 -1 -1 0 2 3 5 5 5 5 5 5 3
1 1 0 -0 -1 -1 -1 -2 -2 -2 -2 -1 -1 -2 -1 -1 -2 -2 -2 -2 -2 -2 -2 -2 -2 -2 -2 -2 -2 -1 -1 -1 -1 0 1 3 6 6 6 6 6 5 6
0 0 -0 -1 -1 -2 -1 -2 -2 -2 -2 -2 -2 -2 -1 -2 -2 -2 -2 -2 -2 -2 -2 -2 -2 -2 -2 -2 -2 -2 -2 -1 -1 -0 1 3 5 6 6 6 7 6 6
0 -0 -0 -1 -1 -1 -2 -2 -2 -2 -2 -2 -2 -2 -2 -2 -2 -2 -2 -2 -2 -2 -2 -2 -2 -2 -2 -3 -2 -2 -2 -1 -1 -0 1 3 5 6 6 6 7 6 6
-0 -0 -0 -1 -2 -2 -2 -2 -2 -2 -2 -2 -2 -2 -2 -2 -2 -2 -2 -2 -2 -2 -2 -2 -3 -3 -3 -3 -3 -2 -2 -2 -1 0 1 3 5 6 6 6 7 7 5
-1 -1 -1 -1 -2 -2 -2 -2 -2 -2 -2 -2 -2 -2 -2 -2 -2 -2 -2 -2 -2 -2 -2 -2 -2 -2 -2 -2 -3 -2 -2 -2 -2 -0 1 3 6 5 6 6 7 7 6
-1 -1 -1 -2 -3 -3 -3 -3 -2 -2 -2 -2 -2 -2 -2 -2 -3 -3 -2 -3 -3 -2 -2 -2 -2 -2 -2 -2 -2 -2 -2 -2 -1 -0 1 4 6 6 6 6 6 7 7

GFSGL_925_temp_081.txt.gz
Temp
13 13 12 12 11 11 10 10 10 9 9 8 8 7 7 7 6 6 6 6 5 5 5 5 5 5 4 5 5 5 4 4 3 5 5 6 5 5 5 5 5 5 5
13 12 11 11 10 10 10 9 9 8 8 7 7 6 6 6 5 5 5 5 4 4 5 4 4 4 4 4 4 4 4 4 4 4 4 4 4 5 4 4 4 4 4
12 11 11 10 10 9 9 8 8 8 7 7 6 6 5 5 5 4 4 4 3 3 3 3 3 3 3 3 3 4 4 4 4 3 3 4 3 3 4 4 3 3 4
11 10 10 9 9 9 8 8 7 7 6 6 5 5 5 5 4 4 4 3 3 3 3 3 3 3 3 3 3 3 3 3 3 3 3 3 3 3 3 3 3 3 3
10 9 9 8 8 8 8 7 7 6 5 5 5 5 5 4 4 4 3 3 3 3 3 3 3 3 4 4 4 3 2 2 2 2 3 2 2 3 3 3 3 3 3
9 9 8 8 8 7 7 6 6 5 5 5 5 4 4 4 3 3 3 4 3 3 3 3 2 2 2 3 4 4 5 4 3 3 3 2 2 3 3 3 4 4 4
8 8 8 8 7 7 6 6 5 5 5 4 4 3 3 3 2 3 3 4 3 2 2 2 2 2 3 2 2 3 3 3 4 4 4 4 4 3 3 3 4 4 4
8 8 8 7 7 6 6 5 5 4 4 3 3 3 2 2 1 2 3 3 3 3 3 2 2 2 2 2 2 2 3 3 3 3 3 3 4 4 3 3 3 4 4
8 8 8 7 6 6 5 4 4 4 3 2 2 2 1 1 1 2 2 2 2 2 2 2 2 2 2 3 3 3 3 3 3 4 4 4 4 5 4 4 3 3 3
8 8 7 6 5 5 4 4 3 2 2 2 1 1 1 1 1 1 2 2 2 2 2 2 2 3 2 3 4 3 2 1 2 2 2 3 3 3 3 4 4 3 4
7 7 6 6 5 4 3 3 2 2 1 1 0 1 1 1 1 1 2 2 2 2 2 2 1 1 1 3 3 2 2 3 2 2 2 2 2 3 3 4 4 4 3
7 6 5 5 4 3 3 2 2 1 1 -0 -0 0 0 0 1 1 2 2 3 2 2 1 1 2 2 3 2 2 2 1 1 3 3 2 3 3 3 3 3 4 4
6 5 5 4 3 3 2 1 1 0 -0 -1 0 0 -0 0 0 0 1 2 2 2 2 2 2 2 2 1 1 1 1 -0 1 2 2 2 3 4 3 3 4 4 3
5 5 4 3 2 2 1 1 0 -0 -1 -0 0 -0 -0 -0 -0 0 0 1 1 0 1 0 0 0 -0 0 0 -1 -1 -1 -0 -0 0 1 2 3 3 3 3 3 3
5 3 3 2 1 1 1 0 -0 -0 -0 0 0 -0 -0 -0 0 1 2 2 1 1 1 -0 -1 -1 -2 -1 0 -0 -1 -1 -0 -1 -0 0 1 2 3 3 3 3 3
3 3 2 1 1 1 0 -0 0 -0 0 0 0 1 1 1 1 2 1 2 1 1 -0 -2 -2 -2 -2 -2 -1 -0 -1 -1 -1 -0 -0 -0 1 2 2 3 3 3 3
2 2 1 1 0 -0 -1 -1 -2 -1 -1 -1 -0 -0 0 1 1 1 1 1 -0 -1 -2 -2 -2 -2 -2 -2 -2 -2 -1 -1 -1 -1 -1 -0 1 1 2 4 4 3 3
2 1 1 0 -0 -1 -1 -1 -2 -1 -2 -2 -1 -1 -0 -0 -0 0 0 -1 -2 -2 -2 -1 -1 -1 -1 -2 -2 -2 -2 -1 -1 -1 -1 -0 -0 0 2 3 3 3 3
1 1 0 -0 -1 -1 -1 -1 -2 -2 -2 -2 -2 -2 -2 -1 -1 -1 -1 -2 -2 -2 -2 -2 -2 -2 -2 -2 -2 -2 -2 -2 -1 -1 -1 -1 -0 1 3 3 3 3 2
1 0 -0 -1 -1 -1 -2 -2 -3 -2 -2 -2 -2 -2 -2 -2 -2 -2 -2 -2 -2 -2 -2 -2 -2 -2 -2 -2 -2 -2 -2 -2 -2 -2 -1 -1 0 1 2 4 4 4 3
0 -1 -1 -1 -1 -1 -2 -2 -2 -3 -2 -2 -2 -2 -1 -1 -2 -2 -2 -2 -2 -2 -2 -2 -2 -2 -2 -2 -2 -2 -2 -2 -2 -2 -1 -1 -0 1 2 4 4 4 3
-1 -1 -1 -1 -1 -2 -2 -3 -3 -3 -3 -3 -2 -2 -2 -2 -2 -2 -2 -2 -3 -3 -2 -2 -2 -2 -3 -2 -3 -2 -2 -2 -2 -2 -1 -1 -1 1 2 3 5 5 4
-1 -2 -2 -2 -2 -2 -3 -2 -2 -3 -3 -3 -3 -3 -3 -2 -3 -3 -3 -3 -3 -3 -3 -3 -3 -3 -3 -3 -3 -2 -2 -2 -2 -1 -1 -1 -0 1 2 4 5 5 5
-2 -2 -2 -3 -3 -3 -3 -3 -3 -3 -2 -2 -3 -3 -3 -3 -3 -3 -3 -3 -3 -3 -3 -3 -3 -3 -3 -3 -3 -3 -3 -2 -2 -2 -1 -1 -0 2 3 5 5 5 5
-2 -2 -3 -3 -4 -3 -3 -3 -3 -3 -3 -3 -3 -3 -3 -3 -3 -3 -3 -3 -3 -3 -3 -3 -3 -3 -3 -2 -2 -2 -3 -2 -2 -2 -1 -0 2 4 4 5 5 5 5
-2 -3 -3 -3 -4 -3 -3 -3 -3 -3 -3 -3 -3 -3 -3 -3 -3 -3 -3 -3 -3 -3 -3 -3 -3 -3 -2 -2 -2 -2 -2 -2 -2 -2 -0 1 3 4 5 5 6 6 5